KC5DAQ-2 Weather Reports


Display with metric or nautical units.
time (UTC)temp
F
wind
direction
speed
MPH
gust
MPH
rain 1hr
in
rain 24hr
in
rain mn
in
humidity
%
barometer
mb
20260903053240 78 68 0.0 0.0 0.05 0.09 0.06 100 1005.7
20260903053138 78 68 0.0 0.0 0.05 0.09 0.06 100 1005.8
20260903053039 78 68 0.0 0.0 0.05 0.09 0.06 100 1005.8
20260903052937 78 68 0.0 0.0 0.06 0.09 0.06 100 1005.9
20260903052839 78 68 0.0 0.0 0.06 0.09 0.06 100 1005.8
20260903052738 78 68 0.0 0.0 0.06 0.09 0.06 100 1005.8
20260903052639 78 68 0.0 0.0 0.06 0.09 0.06 100 1005.9
20260903052539 78 68 0.0 0.0 0.06 0.09 0.06 100 1005.9
20260903052439 78 68 0.0 0.0 0.06 0.09 0.06 100 1005.9
20260903052339 78 68 0.0 0.0 0.06 0.09 0.06 100 1006.0
20260903052238 78 68 0.0 0.0 0.06 0.09 0.06 100 1006.0
20260903052139 78 68 0.0 0.0 0.06 0.09 0.06 100 1006.0
20260903052038 78 68 0.0 0.0 0.06 0.09 0.06 100 1006.0
20260903051938 78 68 0.0 0.0 0.06 0.09 0.06 100 1006.1
20260903051839 78 68 0.0 0.0 0.06 0.09 0.06 100 1006.1
20260903051737 78 68 0.0 0.0 0.06 0.09 0.06 100 1006.1
20260903051638 78 68 0.0 0.0 0.06 0.09 0.06 100 1006.1
20260903051537 78 68 0.0 0.0 0.06 0.09 0.06 100 1006.1
20260903051439 78 68 0.0 0.0 0.06 0.09 0.06 100 1006.1
20260903051341 78 68 0.0 0.0 0.06 0.09 0.06 100 1006.1
20260903051239 78 68 0.0 0.0 0.06 0.09 0.05 100 1006.1
20260903051138 78 68 0.0 0.0 0.05 0.09 0.05 100 1006.1
20260903051038 78 68 0.0 0.0 0.05 0.09 0.05 100 1006.2
20260903050938 78 68 0.0 0.0 0.05 0.09 0.05 100 1006.2
20260903050839 78 68 0.0 0.0 0.05 0.09 0.05 100 1006.2
20260903050739 78 68 0.0 0.0 0.05 0.09 0.05 100 1006.3
20260903050639 78 68 0.0 0.0 0.05 0.09 0.05 100 1006.2
20260903050538 78 68 0.0 0.0 0.05 0.09 0.05 100 1006.2
20260903050437 78 68 0.0 0.0 0.05 0.09 0.05 100 1006.3
20260903050337 78 68 0.0 0.0 0.05 0.09 0.05 100 1006.3
20260903050236 78 68 0.0 0.0 0.05 0.09 0.04 100 1006.3
20260903050138 78 68 0.0 0.0 0.04 0.09 0.04 100 1006.3
20260903050037 78 68 0.0 0.0 0.04 0.09 0.04 100 1006.3
20260903045937 78 68 0.0 0.0 0.04 0.05 0.04 100 1006.4
20260903045838 78 68 0.0 0.0 0.04 0.05 0.04 100 1006.3
20260903045736 78 68 0.0 0.0 0.04 0.05 0.04 100 1006.3
20260903045636 78 68 0.0 0.0 0.04 0.05 0.04 100 1006.3
20260903045540 78 68 0.0 0.0 0.04 0.05 0.03 100 1006.4
20260903045436 78 68 0.0 0.0 0.03 0.05 0.03 100 1006.4
20260903045336 78 68 0.0 0.0 0.03 0.05 0.03 100 1006.4
20260903045237 78 68 0.0 0.0 0.03 0.05 0.03 100 1006.4
20260903045136 78 68 0.0 0.0 0.03 0.05 0.03 100 1006.4
20260903045036 78 68 0.0 0.0 0.03 0.05 0.03 100 1006.4
20260903044938 78 68 0.0 0.0 0.03 0.05 0.03 100 1006.5
20260903044837 78 68 0.0 0.0 0.03 0.05 0.03 100 1006.4
20260903044738 78 68 0.0 0.0 0.03 0.05 0.03 100 1006.5
20260903044637 78 68 0.0 0.0 0.03 0.05 0.03 100 1006.5
20260903044538 78 68 0.0 0.0 0.03 0.05 0.03 100 1006.5
20260903044438 78 68 0.0 0.0 0.03 0.05 0.02 100 1006.5
20260903044338 78 68 0.0 0.0 0.02 0.05 0.02 100 1006.5
20260903044237 78 68 0.0 0.0 0.02 0.05 0.02 100 1006.5
20260903044137 78 68 0.0 0.0 0.02 0.05 0.02 100 1006.5
20260903044036 78 68 0.0 0.0 0.02 0.05 0.02 100 1006.5
20260903043936 78 68 0.0 0.0 0.02 0.05 0.02 100 1006.5
20260903043838 78 68 0.0 0.0 0.02 0.05 0.02 100 1006.5
20260903043737 78 68 0.0 0.0 0.02 0.05 0.01 100 1006.5
20260903043637 78 68 0.0 0.0 0.01 0.05 0.01 100 1006.6
20260903043537 78 68 0.0 0.0 0.01 0.05 0.01 100 1006.6
20260903043435 78 68 0.0 0.0 0.01 0.05 0.01 100 1006.6
20260903043336 78 68 0.0 0.0 0.01 0.05 0.01 100 1006.6
20260903043237 78 68 0.0 0.0 0.01 0.05 0.01 100 1006.7
20260903043137 78 68 0.0 0.0 0.01 0.05 0.01 100 1006.7
20260903043036 78 68 0.0 0.0 0.01 0.05 0.00 100 1006.6
20260903042937 78 68 0.0 0.0 0.00 0.05 0.00 100 1006.7
20260903042837 78 68 0.0 0.0 0.00 0.05 0.00 100 1006.7
20260903042735 78 68 0.0 0.0 0.00 0.05 0.00 100 1006.7
20260903042635 78 68 0.0 0.0 0.00 0.05 0.00 100 1006.7
20260903042537 78 68 0.0 0.0 0.00 0.05 0.00 100 1006.8
20260903042437 78 68 0.0 0.0 0.00 0.05 0.00 100 1006.7
20260903042336 78 68 0.0 0.0 0.00 0.05 0.00 100 1006.9
20260903042237 78 68 0.0 0.0 0.00 0.05 0.00 100 1006.8
20260903042135 78 68 0.0 0.0 0.00 0.05 0.00 100 1006.8
20260903042037 78 68 0.0 0.0 0.00 0.05 0.00 100 1006.9
20260903041937 78 68 0.0 0.0 0.00 0.05 0.00 100 1006.9
20260903041836 78 68 0.0 0.0 0.00 0.05 0.00 100 1006.8
20260903041737 78 68 0.0 0.0 0.00 0.05 0.00 100 1006.9
20260903041637 78 68 0.0 0.0 0.00 0.05 0.00 100 1006.9
20260903041532 78 68 0.0 0.0 0.00 0.05 0.00 100 1007.0
20260903041431 78 68 0.0 0.0 0.00 0.05 0.00 100 1007.0
20260903041333 78 68 0.0 0.0 0.00 0.05 0.00 100 1007.0
20260903041228 78 68 0.0 0.0 0.00 0.05 0.00 99 1007.0
20260903041123 78 68 0.0 0.0 0.00 0.05 0.00 99 1007.0
20260903041024 78 68 0.0 0.0 0.00 0.05 0.00 99 1007.0
20260903040919 78 68 0.0 0.0 0.00 0.05 0.00 99 1007.0
20260903040816 78 68 0.0 0.0 0.00 0.05 0.00 99 1007.0
20260903040710 78 68 0.0 0.0 0.00 0.05 0.00 99 1007.1
20260903040608 78 68 0.0 0.0 0.00 0.05 0.00 99 1007.1
20260903040505 78 68 0.0 0.0 0.00 0.05 0.00 99 1007.1
20260903040403 78 68 0.0 0.0 0.00 0.05 0.00 99 1007.1
20260903040301 78 68 0.0 0.0 0.00 0.05 0.00 99 1007.1
20260903040202 78 68 0.0 0.0 0.00 0.05 0.00 99 1007.2
20260903040104 78 68 0.0 0.0 0.00 0.05 0.00 99 1007.1
20260903040003 78 68 0.0 0.0 0.00 0.05 0.00 99 1007.1
20260903035902 78 68 0.0 0.0 0.00 0.05 0.05 99 1007.1
20260903035803 78 68 0.0 0.0 0.00 0.05 0.05 99 1007.2
20260903035706 78 68 0.0 0.0 0.00 0.05 0.05 99 1007.1
20260903035604 78 68 0.0 0.0 0.00 0.05 0.05 99 1007.1
20260903035502 78 68 0.0 0.0 0.00 0.05 0.05 99 1007.1
20260903035404 78 68 0.0 0.0 0.00 0.05 0.05 99 1007.1
20260903035307 78 68 0.0 0.0 0.00 0.05 0.05 99 1007.1
20260903035203 78 68 0.0 0.0 0.00 0.05 0.05 99 1007.1
20260903035103 78 68 0.0 0.0 0.00 0.05 0.05 99 1007.0
20260903035004 78 68 0.0 0.0 0.00 0.05 0.05 99 1007.0
20260903034902 78 68 0.0 0.0 0.00 0.05 0.05 99 1007.0
20260903034805 78 68 0.0 0.0 0.00 0.05 0.05 99 1007.1
20260903034704 78 68 0.0 0.0 0.00 0.05 0.05 99 1007.0
20260903034602 78 68 0.0 0.0 0.00 0.05 0.05 99 1007.1
20260903034504 78 68 0.0 0.0 0.00 0.05 0.05 99 1007.0
20260903034405 78 68 0.0 0.0 0.00 0.05 0.05 99 1007.0
20260903034305 78 68 0.0 0.0 0.00 0.05 0.05 99 1007.1
20260903034203 78 68 0.0 0.0 0.00 0.05 0.05 99 1007.0
20260903034103 78 68 0.0 0.0 0.00 0.05 0.05 99 1007.1
20260903034002 78 68 0.0 0.0 0.00 0.05 0.05 99 1007.0
20260903033905 78 68 0.0 0.0 0.00 0.05 0.05 99 1007.0
20260903033805 78 68 0.0 0.0 0.00 0.05 0.05 99 1007.1
20260903033703 78 68 0.0 0.0 0.00 0.05 0.05 99 1006.9
20260903033602 78 68 0.0 0.0 0.00 0.05 0.05 99 1006.9
20260903033504 78 68 0.0 0.0 0.00 0.05 0.05 99 1007.0
20260903033404 78 68 0.0 0.0 0.00 0.05 0.05 99 1006.9
20260903033303 78 68 0.0 0.0 0.00 0.05 0.05 99 1006.9
20260903033203 78 68 0.0 0.0 0.00 0.05 0.05 99 1006.9
20260903033102 78 68 0.0 0.0 0.00 0.05 0.05 99 1006.9
20260903033003 78 68 0.0 0.0 0.00 0.05 0.05 99 1006.9
20260903032903 78 68 0.0 0.0 0.00 0.05 0.05 99 1006.8
20260903032804 78 68 0.0 0.0 0.00 0.05 0.05 99 1006.8
20260903032703 78 68 0.0 0.0 0.00 0.05 0.05 99 1006.8
20260903032606 78 68 0.0 0.0 0.00 0.05 0.05 99 1006.8
20260903032503 78 68 0.0 0.0 0.00 0.05 0.05 99 1006.8
20260903032403 78 68 0.0 0.0 0.00 0.05 0.05 99 1006.8
20260903032305 78 68 0.0 0.0 0.00 0.05 0.05 99 1006.8
20260903032207 78 68 0.0 0.0 0.00 0.05 0.05 99 1006.8
20260903032104 78 68 0.0 0.0 0.00 0.05 0.05 99 1006.8
20260903032004 78 68 0.0 0.0 0.00 0.05 0.05 99 1006.7
20260903031903 78 68 0.0 0.0 0.00 0.05 0.05 99 1006.6
20260903031804 78 68 0.0 0.0 0.00 0.05 0.05 99 1006.6
20260903031705 78 68 0.0 0.0 0.00 0.05 0.05 99 1006.5
20260903031603 78 68 0.0 0.0 0.00 0.05 0.05 99 1006.5
20260903031502 78 68 0.0 0.0 0.00 0.05 0.05 99 1006.4
20260903031403 78 68 0.0 0.0 0.00 0.05 0.05 99 1006.4
20260903031305 78 68 0.0 0.0 0.00 0.05 0.05 99 1006.3
20260903031204 78 68 0.0 0.0 0.00 0.05 0.05 99 1006.3
20260903031103 78 68 0.0 0.0 0.00 0.05 0.05 99 1006.3
20260903031004 78 68 0.0 0.0 0.00 0.05 0.05 99 1006.3
20260903030902 78 68 0.0 0.0 0.00 0.05 0.05 99 1006.3
20260903030804 78 68 0.0 0.0 0.00 0.05 0.05 99 1006.2
20260903030704 78 68 0.0 0.0 0.00 0.05 0.05 99 1006.2
20260903030603 78 68 0.0 0.0 0.00 0.05 0.05 99 1006.2
20260903030504 78 68 0.0 0.0 0.00 0.05 0.05 99 1006.1
20260903030406 78 68 0.0 0.0 0.00 0.05 0.05 99 1006.1
20260903030304 78 68 0.0 0.0 0.00 0.05 0.05 99 1006.1
20260903030202 78 68 0.0 0.0 0.00 0.05 0.05 99 1006.0
20260903030103 78 68 0.0 0.0 0.00 0.05 0.05 99 1006.0
20260903030005 79 68 0.0 0.0 0.00 0.05 0.05 99 1006.0
20260903025902 79 68 0.0 0.0 0.00 0.05 0.05 99 1006.0
20260903025802 79 68 0.0 0.0 0.00 0.05 0.05 99 1006.0
20260903025703 79 68 0.0 0.0 0.00 0.05 0.05 99 1006.0
20260903025602 79 65 0.0 0.0 0.00 0.05 0.05 99 1005.9
20260903025503 79 65 0.0 0.0 0.00 0.05 0.05 99 1005.9
20260903025404 79 65 0.0 0.0 0.00 0.05 0.05 99 1005.9
20260903025306 79 65 0.0 0.0 0.00 0.05 0.05 99 1005.9
20260903025203 79 65 0.0 0.0 0.00 0.05 0.05 99 1005.9
20260903025107 79 65 0.0 0.0 0.00 0.05 0.05 99 1005.9
20260903025005 79 65 0.0 0.0 0.00 0.05 0.05 99 1005.8
20260903024903 79 65 0.0 0.0 0.00 0.05 0.05 99 1005.8
20260903024802 79 65 0.0 0.0 0.00 0.05 0.05 99 1005.8
20260903024704 79 65 0.0 0.0 0.00 0.05 0.05 99 1005.8
20260903024604 79 65 0.0 0.0 0.00 0.05 0.05 99 1005.7
20260903024503 79 65 0.0 0.0 0.00 0.05 0.05 99 1005.6
20260903024404 79 65 0.0 0.0 0.00 0.05 0.05 99 1005.7
20260903024303 79 65 0.0 0.0 0.00 0.05 0.05 99 1005.6
20260903024205 79 65 0.0 0.0 0.00 0.05 0.05 99 1005.5
20260903024103 79 65 0.0 0.0 0.00 0.05 0.05 99 1005.5
20260903024005 79 65 0.0 0.0 0.00 0.05 0.05 99 1005.5
20260903023903 79 65 0.0 0.0 0.00 0.05 0.05 99 1005.5
20260903023806 79 65 0.0 0.0 0.00 0.05 0.05 99 1005.4
20260903023704 79 65 0.0 0.0 0.00 0.05 0.05 99 1005.5
20260903023604 79 65 0.0 0.0 0.00 0.05 0.05 99 1005.5
20260903023502 79 65 0.0 0.0 0.00 0.05 0.05 99 1005.6
20260903023402 79 65 0.0 0.0 0.00 0.05 0.05 99 1005.5
20260903023305 79 65 0.0 0.0 0.00 0.05 0.05 99 1005.6
20260903023204 79 69 0.0 0.0 0.00 0.05 0.05 99 1005.6
20260903023103 79 69 0.0 0.0 0.00 0.05 0.05 98 1005.6
20260903023005 79 69 0.0 0.0 0.00 0.05 0.05 98 1005.6
20260903022903 79 69 0.0 0.0 0.00 0.05 0.05 98 1005.6
20260903022803 79 69 0.0 0.0 0.00 0.05 0.05 98 1005.6
20260903022703 79 69 0.0 0.0 0.00 0.05 0.05 98 1005.6
20260903022604 79 69 0.0 0.0 0.00 0.05 0.05 98 1005.5
20260903022505 79 69 0.0 0.0 0.00 0.05 0.05 98 1005.5
20260903022402 79 69 0.0 0.0 0.00 0.05 0.05 98 1005.5
20260903022305 79 69 0.0 0.0 0.00 0.05 0.05 98 1005.4
20260903022202 79 69 0.0 0.0 0.00 0.05 0.05 98 1005.2
20260903022104 79 69 0.0 0.0 0.00 0.05 0.05 98 1005.3
20260903022005 79 69 0.0 0.0 0.00 0.05 0.05 98 1005.2
20260903021903 79 69 0.0 0.0 0.00 0.05 0.05 98 1005.2
20260903021802 79 69 0.0 0.0 0.00 0.05 0.05 98 1005.1
20260903021704 79 69 0.0 0.0 0.00 0.05 0.05 98 1005.1
20260903021603 79 69 0.0 0.0 0.00 0.05 0.05 98 1005.1
20260903021505 79 69 0.0 0.0 0.00 0.05 0.05 98 1005.1
20260903021402 79 69 0.0 0.0 0.00 0.05 0.05 98 1005.1
20260903021303 79 69 0.0 0.0 0.00 0.05 0.05 98 1005.0
20260903021202 79 69 0.0 0.0 0.00 0.05 0.05 98 1005.1
20260903021105 79 69 0.0 0.0 0.00 0.05 0.05 98 1004.9
20260903021004 79 69 0.0 0.0 0.00 0.05 0.05 98 1004.9
20260903020902 79 69 0.0 0.0 0.00 0.05 0.05 98 1004.9
20260903020803 79 69 0.0 0.0 0.00 0.05 0.05 98 1004.9
20260903020703 79 69 0.0 0.0 0.00 0.05 0.05 98 1004.9
20260903020602 79 69 0.0 0.0 0.00 0.05 0.05 98 1005.0
20260903020505 79 69 0.0 0.0 0.00 0.05 0.05 98 1005.0
20260903020402 79 69 0.0 0.0 0.00 0.05 0.05 98 1004.9
20260903020302 79 69 0.0 0.0 0.00 0.05 0.05 98 1004.9
20260903020203 79 69 0.0 0.0 0.00 0.05 0.05 98 1004.9
20260903020010 79 69 0.0 0.0 0.00 0.05 0.05 98 1004.9
20260903015905 79 69 0.0 0.0 0.00 0.05 0.05 98 1004.9
20260903015805 79 69 0.0 0.0 0.00 0.05 0.05 98 1004.9
20260903015703 79 69 0.0 0.0 0.00 0.05 0.05 98 1004.9
20260903015602 79 69 0.0 0.0 0.00 0.05 0.05 98 1004.8
20260903015509 80 69 0.0 0.0 0.00 0.05 0.05 98 1004.8
20260903015404 80 69 0.0 0.0 0.00 0.05 0.05 98 1004.7
20260903015305 80 69 0.0 0.0 0.00 0.05 0.05 97 1004.6
20260903015204 80 69 0.0 0.0 0.00 0.05 0.05 97 1004.5
20260903015103 80 69 0.0 0.0 0.00 0.05 0.05 97 1004.5
20260903015005 80 86 0.0 0.0 0.00 0.05 0.05 97 1004.6
20260903014903 80 86 0.0 0.0 0.00 0.05 0.05 97 1004.4
20260903014803 80 86 0.0 0.0 0.00 0.05 0.05 97 1004.4
20260903014704 80 86 0.0 0.0 0.00 0.05 0.05 97 1004.3
20260903014603 80 86 0.0 0.0 0.00 0.05 0.05 97 1004.3
20260903014506 80 86 0.0 0.0 0.00 0.05 0.05 97 1004.2
20260903014403 80 86 0.0 0.0 0.00 0.05 0.05 97 1004.3
20260903014304 80 86 0.0 0.0 0.00 0.05 0.05 97 1004.2
20260903014203 80 82 0.0 0.0 0.00 0.05 0.05 97 1004.2
20260903014106 80 82 0.0 0.0 0.00 0.05 0.05 97 1004.2
20260903014004 80 83 0.0 0.0 0.00 0.05 0.05 97 1004.3
20260903013902 80 298 0.0 0.0 0.00 0.05 0.05 97 1004.3
20260903013804 80 299 0.0 0.0 0.00 0.05 0.05 97 1004.3
20260903013702 80 296 0.0 0.0 0.00 0.05 0.05 97 1004.3
20260903013603 80 296 0.0 0.0 0.00 0.05 0.05 97 1004.3
20260903013503 80 296 0.0 0.0 0.00 0.05 0.05 97 1004.3
20260903013400 80 295 0.0 0.0 0.00 0.05 0.05 97 1004.4
20260903013258 80 295 0.0 0.0 0.00 0.05 0.05 97 1004.3
20260903013156 80 295 0.0 0.0 0.00 0.05 0.05 97 1004.3
20260903013056 80 295 0.0 0.0 0.00 0.05 0.05 97 1004.3
20260903012958 80 63 0.0 0.0 0.00 0.05 0.05 97 1004.3
20260903012853 80 65 0.0 0.0 0.00 0.05 0.05 97 1004.2
20260903012750 80 66 0.0 0.0 0.00 0.05 0.05 96 1004.2
20260903012649 80 56 0.0 0.0 0.00 0.05 0.05 96 1004.0
20260903012542 80 103 0.0 0.0 0.00 0.05 0.05 96 1004.2
20260903012436 80 103 0.0 0.0 0.00 0.05 0.05 96 1004.1
20260903012337 80 103 0.0 0.0 0.01 0.05 0.05 96 1004.1
20260903012234 80 103 0.0 0.0 0.01 0.05 0.05 96 1004.2
20260903012132 80 103 0.0 0.0 0.01 0.05 0.05 96 1004.3
20260903012034 80 103 0.0 0.0 0.01 0.05 0.05 96 1004.3
20260903011931 80 99 0.0 0.0 0.01 0.05 0.05 96 1004.3
20260903011835 81 99 0.0 0.0 0.01 0.05 0.05 96 1004.3
20260903011732 81 99 0.0 0.0 0.01 0.05 0.05 96 1004.3
20260903011631 81 99 0.0 0.0 0.01 0.05 0.05 96 1004.3
20260903011532 81 99 0.0 0.0 0.01 0.05 0.05 96 1004.4
20260903011435 81 99 0.0 0.0 0.01 0.05 0.05 96 1004.4
20260903011333 81 76 0.0 0.0 0.01 0.05 0.05 96 1004.4
20260903011232 81 45 0.0 0.0 0.01 0.05 0.05 96 1004.4
20260903011132 81 44 0.0 0.0 0.01 0.05 0.05 95 1004.4
20260903011034 81 196 0.0 0.0 0.01 0.05 0.05 95 1004.5
20260903010932 81 357 0.0 0.0 0.01 0.05 0.05 95 1004.5
20260903010832 81 49 0.0 0.0 0.01 0.05 0.05 95 1004.6
20260903010733 81 76 0.0 0.0 0.01 0.05 0.05 95 1004.6
20260903010634 81 76 0.0 0.0 0.01 0.05 0.05 95 1004.6
20260903010531 81 76 0.0 0.0 0.01 0.05 0.05 95 1004.5
20260903010426 81 76 0.0 0.0 0.02 0.05 0.05 95 1004.5
20260903010323 81 76 0.0 0.0 0.02 0.05 0.05 95 1004.4
20260903010221 81 76 0.0 0.0 0.03 0.05 0.05 94 1004.4
20260903010120 81 76 0.0 0.0 0.03 0.05 0.05 94 1004.3
20260903010022 82 76 0.0 0.0 0.04 0.00 0.05 94 1004.3
20260903005914 82 76 0.0 0.0 0.05 0.00 0.05 94 1004.2
20260903005812 82 76 0.0 0.0 0.05 0.00 0.05 94 1004.3
20260903005706 82 21 0.0 0.0 0.05 0.00 0.05 94 1004.2
20260903005603 82 1 0.0 0.0 0.05 0.00 0.05 94 1004.2
20260903005504 82 0 0.0 0.0 0.05 0.00 0.05 94 1004.2
20260903005410 82 11 0.0 0.0 0.05 0.00 0.05 94 1004.2
20260903005306 82 83 0.0 0.0 0.05 0.00 0.05 94 1004.3
20260903005202 82 72 0.0 0.0 0.05 0.00 0.05 94 1004.2
20260903005102 82 261 0.0 0.0 0.05 0.00 0.05 94 1004.3
20260903005004 82 261 0.0 0.0 0.05 0.00 0.05 93 1004.2
20260903004905 82 262 0.0 0.0 0.05 0.00 0.05 93 1004.2
20260903004806 82 262 0.0 0.0 0.05 0.00 0.05 93 1004.3
20260903004703 82 262 0.0 0.0 0.05 0.00 0.05 93 1004.1
20260903004602 82 275 0.0 0.0 0.05 0.00 0.05 92 1004.1
20260903004506 82 275 0.0 0.0 0.05 0.00 0.05 92 1004.2
20260903004405 82 282 0.0 0.0 0.05 0.00 0.05 92 1004.1
20260903004304 83 282 0.0 0.0 0.05 0.00 0.05 92 1004.1
20260903004204 83 282 0.0 0.0 0.05 0.00 0.05 92 1004.1
20260903004105 83 282 0.0 0.0 0.05 0.00 0.05 92 1004.1
20260903004000 83 282 0.0 0.0 0.05 0.00 0.05 91 1004.1
20260903003858 83 282 0.0 0.0 0.05 0.00 0.05 91 1003.9
20260903003758 83 282 0.0 0.0 0.05 0.00 0.05 91 1003.9
20260903003650 83 282 0.0 0.0 0.05 0.00 0.05 91 1003.9
20260903003549 83 282 0.0 0.0 0.05 0.00 0.05 91 1003.9
20260903003444 83 283 0.0 0.0 0.05 0.00 0.05 91 1003.9
20260903003344 83 55 0.0 0.0 0.05 0.00 0.05 91 1003.9
20260903003239 84 1 0.0 0.0 0.05 0.00 0.05 90 1003.9
20260903003134 84 331 0.0 0.0 0.05 0.00 0.05 90 1003.9
20260903003033 84 319 0.0 0.0 0.05 0.00 0.05 90 1004.0
20260903002931 84 0 0.0 0.0 0.05 0.00 0.05 90 1004.0
20260903002832 84 103 0.0 0.0 0.05 0.00 0.05 90 1004.1
20260903002733 84 0 0.0 0.0 0.05 0.00 0.05 90 1004.1
20260903002633 84 96 0.0 0.0 0.05 0.00 0.05 89 1004.1
20260903002533 85 96 0.0 0.0 0.05 0.00 0.05 89 1004.0
20260903002432 85 0 0.0 0.0 0.05 0.00 0.05 88 1004.0
20260903002332 85 45 0.0 0.0 0.04 0.00 0.04 88 1003.9
20260903002234 85 45 0.0 0.0 0.04 0.00 0.04 88 1003.9
20260903002135 85 66 0.0 0.0 0.04 0.00 0.04 88 1003.8
20260903002035 85 275 0.0 0.0 0.04 0.00 0.04 88 1003.7
20260903001932 85 275 0.0 0.0 0.04 0.00 0.04 88 1003.7
20260903001832 86 54 0.0 0.0 0.04 0.00 0.04 88 1003.6
20260903001733 86 151 0.0 0.0 0.04 0.00 0.04 88 1003.5
20260903001632 86 151 0.0 0.0 0.04 0.00 0.04 88 1003.6
20260903001532 86 149 0.0 0.0 0.04 0.00 0.04 87 1003.5
20260903001431 86 149 0.0 0.0 0.04 0.00 0.04 87 1003.4
20260903001332 86 259 0.0 0.0 0.04 0.00 0.04 87 1003.4
20260903001231 87 259 0.0 0.0 0.04 0.00 0.04 86 1003.4
20260903001131 87 117 0.0 0.0 0.04 0.00 0.04 86 1003.4
20260903001033 87 117 0.0 0.0 0.04 0.00 0.04 86 1003.4
20260903000932 87 117 0.0 0.0 0.04 0.00 0.04 86 1003.4
20260903000833 87 117 0.0 0.0 0.04 0.00 0.04 85 1003.4
20260903000731 87 125 0.0 0.0 0.04 0.00 0.04 85 1003.5
20260903000631 87 121 0.0 0.0 0.04 0.00 0.03 85 1003.6
20260903000532 87 121 0.0 0.0 0.04 0.00 0.03 84 1003.7
20260903000432 87 79 0.0 0.0 0.03 0.00 0.02 83 1003.8
20260903000332 88 79 0.0 0.0 0.03 0.00 0.02 83 1003.9
20260903000231 88 85 0.0 0.0 0.02 0.00 0.01 83 1003.9
20260903000130 88 113 0.0 0.0 0.02 0.00 0.01 82 1004.0
20260903000034 88 89 0.0 0.0 0.01 0.00 0.00 82 1004.0
20260902235930 88 99 0.0 0.0 0.00 0.00 0.00 82 1003.9
20260902235831 88 118 0.0 0.0 0.00 0.00 0.00 82 1004.0
20260902235730 88 51 0.0 0.0 0.00 0.00 0.00 82 1003.9
20260902235629 89 83 0.0 0.0 0.00 0.00 0.00 82 1004.1
20260902235532 89 66 0.0 0.0 0.00 0.00 0.00 82 1004.0
20260902235432 89 100 0.0 0.0 0.00 0.00 0.00 81 1004.0
20260902235330 89 124 0.0 0.0 0.00 0.00 0.00 81 1004.1
20260902235231 89 320 0.0 0.0 0.00 0.00 0.00 81 1004.0
20260902235129 89 320 0.0 0.0 0.00 0.00 0.00 81 1004.0
20260902235030 89 320 0.0 0.0 0.00 0.00 0.00 81 1004.1
20260902234931 89 327 0.0 0.0 0.00 0.00 0.00 81 1004.1
20260902234829 89 309 0.0 0.0 0.00 0.00 0.00 81 1004.1
20260902234734 89 200 0.0 0.0 0.00 0.00 0.00 81 1004.0
20260902234632 89 197 0.0 0.0 0.00 0.00 0.00 81 1004.0
20260902234531 90 305 0.0 0.0 0.00 0.00 0.00 81 1004.0
20260902234430 90 305 0.0 0.0 0.00 0.00 0.00 81 1003.8
20260902234329 90 305 0.0 0.0 0.00 0.00 0.00 81 1003.7
20260902234229 90 300 0.0 0.0 0.00 0.00 0.00 81 1003.7
20260902234132 90 103 0.0 0.0 0.00 0.00 0.00 81 1003.7
20260902234029 90 310 0.0 0.0 0.00 0.00 0.00 81 1003.8
20260902233930 90 94 0.0 0.0 0.00 0.00 0.00 81 1003.8
20260902233833 90 99 0.0 0.0 0.00 0.00 0.00 81 1003.7
20260902233730 90 93 0.0 0.0 0.00 0.00 0.00 81 1003.6
20260902233631 90 226 0.0 0.0 0.00 0.00 0.00 80 1003.7
20260902233531 90 226 0.0 0.0 0.00 0.00 0.00 80 1003.5
20260902233430 90 226 0.0 0.0 0.00 0.00 0.00 80 1003.5
20260902233330 90 226 0.0 0.0 0.00 0.00 0.00 80 1003.2
20260902233231 90 226 0.0 0.0 0.00 0.00 0.00 80 1003.1
20260902233129 91 226 0.0 0.0 0.00 0.00 0.00 80 1003.1
20260902233029 91 224 0.0 0.0 0.00 0.00 0.00 80 1002.9
20260902232928 91 224 0.0 0.0 0.00 0.00 0.00 80 1003.0
20260902232832 91 224 0.0 0.0 0.00 0.00 0.00 80 1002.9
20260902232730 91 223 0.0 0.0 0.00 0.00 0.00 80 1002.9
20260902232630 91 223 0.0 0.0 0.00 0.00 0.00 80 1002.9
20260902232528 91 234 0.0 0.0 0.00 0.00 0.00 80 1002.8
20260902232430 91 234 0.0 0.0 0.00 0.00 0.00 80 1002.9
20260902232330 91 234 0.0 0.0 0.00 0.00 0.00 80 1002.9
20260902232230 91 234 0.0 0.0 0.00 0.00 0.00 80 1002.9
20260902232129 91 234 0.0 0.0 0.00 0.00 0.00 80 1002.9
20260902232031 91 234 0.0 0.0 0.00 0.00 0.00 80 1002.9
20260902231931 91 234 0.0 0.0 0.00 0.00 0.00 80 1003.1
20260902231830 91 234 0.0 0.0 0.00 0.00 0.00 80 1003.0
20260902231729 91 235 0.0 0.0 0.00 0.00 0.00 80 1003.1
20260902231632 91 235 0.0 0.0 0.00 0.00 0.00 80 1003.1
20260902231532 91 235 0.0 0.0 0.00 0.00 0.00 80 1003.1
20260902231430 91 235 0.0 0.0 0.00 0.00 0.00 80 1003.1
20260902231328 92 293 0.0 0.0 0.00 0.00 0.00 80 1003.0
20260902231228 92 286 0.0 0.0 0.00 0.00 0.00 80 1003.1
20260902231133 92 83 0.0 0.0 0.00 0.00 0.00 80 1003.1
20260902231031 92 83 0.0 0.0 0.00 0.00 0.00 80 1003.2
20260902230929 92 83 0.0 0.0 0.00 0.00 0.00 80 1003.1
20260902230830 92 83 0.0 0.0 0.00 0.00 0.00 80 1003.2
20260902230728 92 83 0.0 0.0 0.00 0.00 0.00 80 1003.2
20260902230631 92 82 0.0 0.0 0.00 0.00 0.00 80 1003.2
20260902230529 92 13 0.0 0.0 0.00 0.00 0.00 80 1003.1
20260902230429 92 331 0.0 0.0 0.00 0.00 0.00 79 1003.1
20260902230328 92 331 0.0 0.0 0.00 0.00 0.00 79 1003.1
20260902230230 92 39 0.0 0.0 0.00 0.00 0.00 79 1003.1
20260902230130 92 17 0.0 0.0 0.00 0.00 0.00 79 1003.1
20260902230030 92 17 0.0 0.0 0.00 0.00 0.00 79 1003.1
20260902225928 92 0 0.0 0.0 0.00 0.00 0.00 79 1003.0
20260902225830 92 0 0.0 0.0 0.00 0.00 0.00 79 1003.0
20260902225729 92 357 0.0 0.0 0.00 0.00 0.00 79 1003.0
20260902225630 93 357 0.0 0.0 0.00 0.00 0.00 79 1003.0
20260902225529 93 357 0.0 0.0 0.00 0.00 0.00 79 1003.0
20260902225428 93 357 0.0 0.0 0.00 0.00 0.00 79 1002.9
20260902225327 93 357 0.0 0.0 0.00 0.00 0.00 79 1003.1
20260902225222 93 357 0.0 0.0 0.00 0.00 0.00 79 1003.0
20260902225125 93 357 0.0 0.0 0.00 0.00 0.00 79 1002.9
20260902225024 93 357 0.0 0.0 0.00 0.00 0.00 79 1003.0
20260902224921 93 357 0.0 0.0 0.00 0.00 0.00 79 1002.9
20260902224819 93 357 0.0 0.0 0.00 0.00 0.00 78 1002.9
20260902224713 93 357 0.0 0.0 0.00 0.00 0.00 78 1002.9
20260902224613 93 357 0.0 0.0 0.00 0.00 0.00 78 1002.9
20260902224507 93 357 0.0 0.0 0.00 0.00 0.00 78 1002.9
20260902224404 93 357 0.0 0.0 0.00 0.00 0.00 78 1002.9
20260902224306 93 357 0.0 0.0 0.00 0.00 0.00 78 1002.8
20260902224205 93 357 0.0 0.0 0.00 0.00 0.00 78 1002.8
20260902224103 94 125 0.0 0.0 0.00 0.00 0.00 78 1002.9
20260902224003 94 125 0.0 0.0 0.00 0.00 0.00 78 1002.9
20260902223903 94 125 0.0 0.0 0.00 0.00 0.00 78 1003.1
20260902223804 94 92 0.0 0.0 0.00 0.00 0.00 78 1003.1
20260902223703 94 104 0.0 0.0 0.00 0.00 0.00 78 1003.0
20260902223601 94 82 0.0 0.0 0.00 0.00 0.00 78 1003.0
20260902223504 94 148 0.0 0.0 0.00 0.00 0.00 78 1003.1
20260902223406 94 59 0.0 0.0 0.00 0.00 0.00 78 1003.1
20260902223305 94 59 0.0 0.0 0.00 0.00 0.00 78 1003.1
20260902223204 94 59 0.0 0.0 0.00 0.00 0.00 78 1003.0
20260902223103 94 58 0.0 0.0 0.00 0.00 0.00 78 1003.1
20260902223006 94 131 0.0 0.0 0.00 0.00 0.00 78 1003.1
20260902222907 94 333 0.0 0.0 0.00 0.00 0.00 78 1003.1
20260902222803 94 333 0.0 0.0 0.00 0.00 0.00 78 1003.1
20260902222704 94 333 0.0 0.0 0.00 0.00 0.00 78 1003.1
20260902222602 94 49 0.0 0.0 0.00 0.00 0.00 78 1003.1
20260902222505 94 69 0.0 0.0 0.00 0.00 0.00 78 1003.1
20260902222403 94 0 0.0 0.0 0.00 0.00 0.00 78 1002.9
20260902222305 94 90 0.0 0.0 0.00 0.00 0.00 78 1002.9
20260902222204 94 52 0.0 0.0 0.00 0.00 0.00 78 1002.9
20260902222104 94 51 0.0 0.0 0.00 0.00 0.00 78 1002.9
20260902222006 94 51 0.0 0.0 0.00 0.00 0.00 79 1002.9
20260902221903 94 51 0.0 0.0 0.00 0.00 0.00 79 1002.9
20260902221803 94 314 0.0 0.0 0.00 0.00 0.00 78 1002.8
20260902221703 94 312 0.0 0.0 0.00 0.00 0.00 78 1002.9
20260902221606 94 312 0.0 0.0 0.00 0.00 0.00 78 1002.9
20260902221506 94 312 0.0 0.0 0.00 0.00 0.00 78 1002.8
20260902221404 94 312 0.0 0.0 0.00 0.00 0.00 78 1002.9
20260902221302 95 312 0.0 0.0 0.00 0.00 0.00 78 1002.9
20260902221206 95 310 0.0 0.0 0.00 0.00 0.00 78 1002.9
20260902221059 95 316 0.0 0.0 0.00 0.00 0.00 78 1002.8
20260902220955 95 316 0.0 0.0 0.00 0.00 0.00 79 1002.8
20260902220851 95 316 0.0 0.0 0.00 0.00 0.00 79 1002.7
20260902220748 95 159 0.0 0.0 0.00 0.00 0.00 79 1002.8
20260902220644 95 159 0.0 0.0 0.00 0.00 0.00 79 1002.8
20260902220541 95 159 0.0 0.0 0.00 0.00 0.00 78 1002.7
20260902220439 95 159 0.0 0.0 0.00 0.00 0.00 78 1002.7
20260902220337 95 159 0.0 0.0 0.00 0.00 0.00 78 1002.7
20260902220233 95 159 0.0 0.0 0.00 0.00 0.00 78 1002.7
20260902220132 95 159 0.0 0.0 0.00 0.00 0.00 78 1002.6
20260902220031 95 159 0.0 0.0 0.00 0.00 0.00 78 1002.6
20260902215931 95 159 0.0 0.0 0.00 0.00 0.00 78 1002.7
20260902215831 95 159 0.0 0.0 0.00 0.00 0.00 78 1002.7
20260902215733 95 159 0.0 0.0 0.00 0.00 0.00 78 1002.7
20260902215632 96 159 0.0 0.0 0.00 0.00 0.00 78 1002.6
20260902215529 96 159 0.0 0.0 0.00 0.00 0.00 78 1002.7
20260902215428 96 159 0.0 0.0 0.00 0.00 0.00 78 1002.7
20260902215328 96 159 0.0 0.0 0.00 0.00 0.00 78 1002.8
20260902215227 96 149 0.0 0.0 0.00 0.00 0.00 78 1002.7
20260902215129 96 149 0.0 0.0 0.00 0.00 0.00 77 1002.7
20260902215028 96 185 0.0 0.0 0.00 0.00 0.00 77 1002.7
20260902214927 96 186 0.0 0.0 0.00 0.00 0.00 77 1002.7
20260902214828 96 185 0.0 0.0 0.00 0.00 0.00 77 1002.7
20260902214729 96 186 0.0 0.0 0.00 0.00 0.00 77 1002.8
20260902214627 96 186 0.0 0.0 0.00 0.00 0.00 77 1002.7
20260902214528 97 186 0.0 0.0 0.00 0.00 0.00 77 1002.7
20260902214426 97 186 0.0 0.0 0.00 0.00 0.00 77 1002.8
20260902214328 97 216 0.0 0.0 0.00 0.00 0.00 77 1002.8
20260902214229 97 216 0.0 0.0 0.00 0.00 0.00 77 1002.8
20260902214127 97 216 0.0 0.0 0.00 0.00 0.00 77 1002.8
20260902214026 97 216 0.0 0.0 0.00 0.00 0.00 77 1002.8
20260902213926 97 217 0.0 0.0 0.00 0.00 0.00 77 1002.9
20260902213828 97 217 0.0 0.0 0.00 0.00 0.00 77 1002.8
20260902213726 97 217 0.0 0.0 0.00 0.00 0.00 77 1002.8
20260902213627 97 247 0.0 0.0 0.00 0.00 0.00 76 1003.0
20260902213528 97 247 0.0 0.0 0.00 0.00 0.00 76 1002.9
20260902213428 97 254 0.0 0.0 0.00 0.00 0.00 76 1002.9
20260902213328 97 254 0.0 0.0 0.00 0.00 0.00 76 1003.0
20260902213226 97 254 0.0 0.0 0.00 0.00 0.00 76 1003.0
20260902213127 97 254 0.0 0.0 0.00 0.00 0.00 76 1003.1
20260902213026 98 254 0.0 0.0 0.00 0.00 0.00 76 1003.0
20260902212927 98 257 0.0 0.0 0.00 0.00 0.00 76 1003.1
20260902212828 98 257 0.0 0.0 0.00 0.00 0.00 75 1003.1
20260902212726 98 257 0.0 0.0 0.00 0.00 0.00 75 1003.1
20260902212627 98 257 0.0 0.0 0.00 0.00 0.00 75 1003.1
20260902212529 98 257 0.0 0.0 0.00 0.00 0.00 75 1003.1
20260902212427 98 257 0.0 0.0 0.00 0.00 0.00 74 1003.1
20260902212327 98 257 0.0 0.0 0.00 0.00 0.00 74 1003.1
20260902212226 98 125 0.0 0.0 0.00 0.00 0.00 74 1003.1
20260902212126 98 149 0.0 0.0 0.00 0.00 0.00 74 1003.2
20260902212030 98 220 0.0 0.0 0.00 0.00 0.00 74 1003.2
20260902211926 98 203 0.0 0.0 0.00 0.00 0.00 74 1003.2
20260902211826 98 202 0.0 0.0 0.00 0.00 0.00 74 1003.2
20260902211727 98 147 0.0 0.0 0.00 0.00 0.00 73 1003.2
20260902211629 98 140 0.0 0.0 0.00 0.00 0.00 73 1003.1
20260902211527 98 140 0.0 0.0 0.00 0.00 0.00 73 1003.2
20260902211427 98 140 0.0 0.0 0.00 0.00 0.00 73 1003.2
20260902211326 98 140 0.0 0.0 0.00 0.00 0.00 73 1003.2
20260902211230 98 147 0.0 0.0 0.00 0.00 0.00 73 1003.2
20260902211127 98 128 0.0 0.0 0.00 0.00 0.00 73 1003.2
20260902211027 98 128 0.0 0.0 0.00 0.00 0.00 74 1003.2
20260902210926 98 125 0.0 0.0 0.00 0.00 0.00 74 1003.2
20260902210828 98 116 0.0 0.0 0.00 0.00 0.00 74 1003.2
20260902210729 98 113 0.0 0.0 0.00 0.00 0.00 74 1003.3
20260902210627 98 204 0.0 0.0 0.00 0.00 0.00 74 1003.2
20260902210525 98 149 0.0 0.0 0.00 0.00 0.00 74 1003.3
20260902210425 98 248 0.0 0.0 0.00 0.00 0.00 74 1003.2
20260902210329 98 142 0.0 0.0 0.00 0.00 0.00 74 1003.2
20260902210227 98 142 0.0 0.0 0.00 0.00 0.00 74 1003.2
20260902210125 98 142 0.0 0.0 0.00 0.00 0.00 74 1003.3
20260902210028 98 83 0.0 0.0 0.00 0.00 0.00 72 1003.2
20260902205927 98 83 0.0 0.0 0.00 0.00 0.00 72 1003.3
20260902205826 98 83 0.0 0.0 0.00 0.00 0.00 72 1003.2
20260902205727 98 142 0.0 0.0 0.00 0.00 0.00 72 1003.3
20260902205627 98 142 0.0 0.0 0.00 0.00 0.00 72 1003.3
20260902205526 98 142 0.0 0.0 0.00 0.00 0.00 72 1003.4
20260902205429 98 142 0.0 0.0 0.00 0.00 0.00 72 1003.4
20260902205325 98 93 0.0 0.0 0.00 0.00 0.00 72 1003.5
20260902205226 98 92 0.0 0.0 0.00 0.00 0.00 72 1003.4
20260902205126 98 92 0.0 0.0 0.00 0.00 0.00 72 1003.4
20260902205028 98 69 0.0 0.0 0.00 0.00 0.00 72 1003.4
20260902204927 98 68 0.0 0.0 0.00 0.00 0.00 72 1003.3
20260902204826 98 20 0.0 0.0 0.00 0.00 0.00 72 1003.3
20260902204726 98 133 0.0 0.0 0.00 0.00 0.00 71 1003.4
20260902204627 98 133 0.0 0.0 0.00 0.00 0.00 71 1003.3
20260902204526 98 133 0.0 0.0 0.00 0.00 0.00 71 1003.4
20260902204430 98 133 0.0 0.0 0.00 0.00 0.00 71 1003.4
20260902204326 98 133 0.0 0.0 0.00 0.00 0.00 71 1003.4
20260902204225 98 133 0.0 0.0 0.00 0.00 0.00 71 1003.4
20260902204128 98 133 0.0 0.0 0.00 0.00 0.00 71 1003.4
20260902204023 98 131 0.0 0.0 0.00 0.00 0.00 71 1003.5
20260902203920 98 131 0.0 0.0 0.00 0.00 0.00 70 1003.4
20260902203821 98 131 0.0 0.0 0.00 0.00 0.00 70 1003.5
20260902203714 98 131 0.0 0.0 0.00 0.00 0.00 70 1003.5
20260902203612 99 135 0.0 0.0 0.00 0.00 0.00 70 1003.5
20260902203506 99 233 0.0 0.0 0.00 0.00 0.00 70 1003.6
20260902203404 99 233 0.0 0.0 0.00 0.00 0.00 70 1003.5
20260902203305 99 235 0.0 0.0 0.00 0.00 0.00 70 1003.5
20260902203204 99 127 0.0 0.0 0.00 0.00 0.00 70 1003.6
20260902203105 99 125 0.0 0.0 0.00 0.00 0.00 70 1003.6
20260902203002 99 128 0.0 0.0 0.00 0.00 0.00 70 1003.6
20260902202903 99 128 0.0 0.0 0.00 0.00 0.00 70 1003.6
20260902202802 99 226 0.0 0.0 0.00 0.00 0.00 70 1003.6
20260902202705 99 120 0.0 0.0 0.00 0.00 0.00 70 1003.6
20260902202604 99 39 0.0 0.0 0.00 0.00 0.00 70 1003.6
20260902202505 100 39 0.0 0.0 0.00 0.00 0.00 70 1003.7
20260902202402 100 316 0.0 0.0 0.00 0.00 0.00 70 1003.7
20260902202306 100 316 0.0 0.0 0.00 0.00 0.00 69 1003.6
20260902202206 100 317 0.0 0.0 0.00 0.00 0.00 69 1003.7
20260902202103 100 317 0.0 0.0 0.00 0.00 0.00 69 1003.7
20260902202004 100 317 0.0 0.0 0.00 0.00 0.00 69 1003.7
20260902201902 100 317 0.0 0.0 0.00 0.00 0.00 68 1003.7
20260902201804 100 166 0.0 0.0 0.00 0.00 0.00 68 1003.6
20260902201704 100 162 0.0 0.0 0.00 0.00 0.00 68 1003.5
20260902201603 100 162 0.0 0.0 0.00 0.00 0.00 68 1003.6
20260902201503 100 161 0.0 0.0 0.00 0.00 0.00 68 1003.6
20260902201405 100 161 0.0 0.0 0.00 0.00 0.00 68 1003.6
20260902201302 100 161 0.0 0.0 0.00 0.00 0.00 68 1003.5
20260902201205 100 161 0.0 0.0 0.00 0.00 0.00 68 1003.7
20260902201102 101 161 0.0 0.0 0.00 0.00 0.00 68 1003.5
20260902201004 101 182 0.0 0.0 0.00 0.00 0.00 68 1003.6
20260902200906 101 144 0.0 0.0 0.00 0.00 0.00 68 1003.6
20260902200804 101 144 0.0 0.0 0.00 0.00 0.00 68 1003.6
20260902200703 101 171 0.0 0.0 0.00 0.00 0.00 68 1003.7
20260902200603 101 168 0.0 0.0 0.00 0.00 0.00 68 1003.7
20260902200506 101 173 0.0 0.0 0.00 0.00 0.00 68 1003.7
20260902200404 101 182 0.0 0.0 0.00 0.00 0.00 69 1003.7
20260902200252 101 168 0.0 0.0 0.00 0.00 0.00 69 1003.7
20260902200149 101 343 0.0 0.0 0.00 0.00 0.00 69 1003.7
20260902200046 101 149 0.0 0.0 0.00 0.00 0.00 68 1003.7
20260902195943 101 149 0.0 0.0 0.00 0.00 0.00 69 1003.7
20260902195842 101 135 0.0 0.0 0.00 0.00 0.00 69 1003.8
20260902195739 101 135 0.0 0.0 0.00 0.00 0.00 69 1003.8
20260902195632 101 226 0.0 0.0 0.00 0.00 0.00 68 1003.8
20260902195534 101 235 0.0 0.0 0.00 0.00 0.00 69 1003.8
20260902195433 101 142 0.0 0.0 0.00 0.00 0.00 69 1003.9
20260902195333 101 134 0.0 0.0 0.00 0.00 0.00 69 1003.9
20260902195231 101 228 0.0 0.0 0.00 0.00 0.00 69 1003.9
20260902195132 101 227 0.0 0.0 0.00 0.00 0.00 69 1003.9
20260902195033 101 120 0.0 0.0 0.00 0.00 0.00 69 1004.0
20260902194931 101 209 0.0 0.0 0.00 0.00 0.00 69 1003.9
20260902194832 101 138 0.0 0.0 0.00 0.00 0.00 69 1004.0
20260902194733 101 295 0.0 0.0 0.00 0.00 0.00 69 1004.0
20260902194634 100 48 0.0 0.0 0.00 0.00 0.00 69 1004.0
20260902194527 100 180 0.0 0.0 0.00 0.00 0.00 69 1004.0
20260902194426 100 182 0.0 0.0 0.00 0.00 0.00 69 1004.0
20260902194327 100 125 0.0 0.0 0.00 0.00 0.00 69 1004.1
20260902194226 100 124 0.0 0.0 0.00 0.00 0.00 69 1004.1
20260902194125 100 262 0.0 0.0 0.00 0.00 0.00 69 1004.1
20260902194028 101 262 0.0 0.0 0.00 0.00 0.00 69 1004.1
20260902193927 101 189 0.0 0.0 0.00 0.00 0.00 69 1004.2
20260902193824 101 190 0.0 0.0 0.00 0.00 0.00 69 1004.2
20260902193724 101 154 0.0 0.0 0.00 0.00 0.00 69 1004.3
20260902193624 101 178 0.0 0.0 0.00 0.00 0.00 69 1004.3
20260902193526 100 158 0.0 0.0 0.00 0.00 0.00 69 1004.2
20260902193427 100 59 0.0 0.0 0.00 0.00 0.00 69 1004.2
20260902193323 100 52 0.0 0.0 0.00 0.00 0.00 69 1004.2
20260902193223 100 324 0.0 0.0 0.00 0.00 0.00 69 1004.2
20260902193124 100 324 0.0 0.0 0.00 0.00 0.00 69 1004.3
20260902193026 100 213 0.0 0.0 0.00 0.00 0.00 69 1004.3
20260902192929 100 288 0.0 0.0 0.00 0.00 0.00 69 1004.4
20260902192823 100 316 0.0 0.0 0.00 0.00 0.00 70 1004.3
20260902192724 100 334 0.0 0.0 0.00 0.00 0.00 70 1004.3
20260902192624 100 334 0.0 0.0 0.00 0.00 0.00 70 1004.3
20260902192524 100 343 0.0 0.0 0.00 0.00 0.00 70 1004.3
20260902192423 100 258 0.0 0.0 0.00 0.00 0.00 70 1004.5
20260902192325 100 265 0.0 0.0 0.00 0.00 0.00 70 1004.4
20260902192227 100 138 0.0 0.0 0.00 0.00 0.00 70 1004.4
20260902192126 100 127 0.0 0.0 0.00 0.00 0.00 70 1004.4
20260902192024 100 235 0.0 0.0 0.00 0.00 0.00 70 1004.5
20260902191926 100 235 0.0 0.0 0.00 0.00 0.00 70 1004.5
20260902191824 100 131 0.0 0.0 0.00 0.00 0.00 70 1004.4
20260902191727 100 213 0.0 0.0 0.00 0.00 0.00 70 1004.5
20260902191625 100 348 0.0 0.0 0.00 0.00 0.00 70 1004.5
20260902191524 100 104 0.0 0.0 0.00 0.00 0.00 70 1004.6
20260902191425 100 135 0.0 0.0 0.00 0.00 0.00 70 1004.6
20260902191325 99 282 0.0 0.0 0.00 0.00 0.00 70 1004.6
20260902191225 99 125 0.0 0.0 0.00 0.00 0.00 71 1004.6
20260902191119 99 264 0.0 0.0 0.00 0.00 0.00 71 1004.5
20260902191018 99 272 0.0 0.0 0.00 0.00 0.00 71 1004.7
20260902190917 99 290 0.0 0.0 0.00 0.00 0.00 71 1004.6
20260902190809 99 144 0.0 0.0 0.00 0.00 0.00 71 1004.6
20260902190709 99 114 0.0 0.0 0.00 0.00 0.00 71 1004.6
20260902190605 99 113 0.0 0.0 0.00 0.00 0.00 71 1004.7
20260902190504 99 173 0.0 0.0 0.00 0.00 0.00 71 1004.6
20260902190404 99 180 0.0 0.0 0.00 0.00 0.00 72 1004.6
20260902190304 99 324 0.0 0.0 0.00 0.00 0.00 72 1004.7
20260902190205 98 0 0.0 0.0 0.00 0.00 0.00 72 1004.7
20260902190104 98 223 0.0 0.0 0.00 0.00 0.00 72 1004.7
20260902190005 98 226 0.0 0.0 0.00 0.00 0.00 72 1004.7
20260902185906 98 224 0.0 0.0 0.00 0.00 0.00 72 1004.7
20260902185805 98 274 0.0 0.0 0.00 0.00 0.00 72 1004.7
20260902185704 98 183 0.0 0.0 0.00 0.00 0.00 72 1004.8
20260902185603 98 185 0.0 0.0 0.00 0.00 0.00 71 1004.9
20260902185506 98 161 0.0 0.0 0.00 0.00 0.00 71 1004.9
20260902185404 98 144 0.0 0.0 0.00 0.00 0.00 72 1004.9
20260902185306 98 197 0.0 0.0 0.00 0.00 0.00 72 1004.8
20260902185204 98 212 0.0 0.0 0.00 0.00 0.00 71 1004.9
20260902185105 99 228 0.0 0.0 0.00 0.00 0.00 71 1004.8
20260902185004 99 228 0.0 0.0 0.00 0.00 0.00 70 1004.9
20260902184903 99 228 0.0 0.0 0.00 0.00 0.00 70 1004.9
20260902184803 99 254 0.0 0.0 0.00 0.00 0.00 71 1004.8
20260902184703 99 175 0.0 0.0 0.00 0.00 0.00 71 1004.9
20260902184606 99 164 0.0 0.0 0.00 0.00 0.00 71 1004.9
20260902184503 99 210 0.0 0.0 0.00 0.00 0.00 70 1004.9
20260902184404 99 210 0.0 0.0 0.00 0.00 0.00 70 1005.0
20260902184303 99 223 0.0 0.0 0.00 0.00 0.00 70 1005.0
20260902184205 100 171 0.0 0.0 0.00 0.00 0.00 70 1005.0
20260902184104 100 298 0.0 0.0 0.00 0.00 0.00 70 1005.0
20260902184002 100 39 0.0 0.0 0.00 0.00 0.00 70 1005.0
20260902183904 100 1 0.0 0.0 0.00 0.00 0.00 70 1005.0
20260902183803 100 1 0.0 0.0 0.00 0.00 0.00 70 1005.1
20260902183704 100 89 0.0 0.0 0.00 0.00 0.00 70 1005.1
20260902183604 100 290 0.0 0.0 0.00 0.00 0.00 70 1005.1
20260902183506 100 281 0.0 0.0 0.00 0.00 0.00 70 1005.2
20260902183404 100 296 0.0 0.0 0.00 0.00 0.00 70 1005.2
20260902183304 100 293 0.0 0.0 0.00 0.00 0.00 70 1005.2
20260902183203 100 292 0.0 0.0 0.00 0.00 0.00 70 1005.2
20260902183102 100 290 0.0 0.0 0.00 0.00 0.00 70 1005.2
20260902183003 100 299 0.0 0.0 0.00 0.00 0.00 70 1005.2
20260902182902 100 251 0.0 0.0 0.00 0.00 0.00 70 1005.2
20260902182803 100 51 0.0 0.0 0.00 0.00 0.00 70 1005.2
20260902182704 100 351 0.0 0.0 0.00 0.00 0.00 70 1005.2
20260902182602 100 351 0.0 0.0 0.00 0.00 0.00 70 1005.3
20260902182502 100 348 0.0 0.0 0.00 0.00 0.00 70 1005.3
20260902182406 100 128 0.0 0.0 0.00 0.00 0.00 70 1005.3
20260902182306 100 195 0.0 0.0 0.00 0.00 0.00 70 1005.4
20260902182202 100 183 0.0 0.0 0.00 0.00 0.00 70 1005.4
20260902182102 100 169 0.0 0.0 0.00 0.00 0.00 70 1005.3
20260902182005 100 185 0.0 0.0 0.00 0.00 0.00 70 1005.4
20260902181903 100 133 0.0 0.0 0.00 0.00 0.00 71 1005.4
20260902181803 100 148 0.0 0.0 0.00 0.00 0.00 71 1005.4
20260902181703 100 176 0.0 0.0 0.00 0.00 0.00 71 1005.4
20260902181602 99 298 0.0 0.0 0.00 0.00 0.00 71 1005.5
20260902181505 99 190 0.0 0.0 0.00 0.00 0.00 71 1005.4
20260902181404 99 189 0.0 0.0 0.00 0.00 0.00 71 1005.5
20260902181300 99 11 0.0 0.0 0.00 0.00 0.00 71 1005.5
20260902181158 99 0 0.0 0.0 0.00 0.00 0.00 71 1005.6
20260902181055 100 358 0.0 0.0 0.00 0.00 0.00 71 1005.5
20260902180958 100 338 0.0 0.0 0.00 0.00 0.00 70 1005.6
20260902180845 100 319 0.0 0.0 0.00 0.00 0.00 70 1005.6
20260902180742 100 206 0.0 0.0 0.00 0.00 0.00 70 1005.7
20260902180639 100 324 0.0 0.0 0.00 0.00 0.00 71 1005.7
20260902180531 100 245 0.0 0.0 0.00 0.00 0.00 71 1005.7
20260902180432 99 197 0.0 0.0 0.00 0.00 0.00 71 1005.7
20260902180331 99 52 0.0 0.0 0.00 0.00 0.00 72 1005.7
20260902180228 99 55 0.0 0.0 0.00 0.00 0.00 72 1005.7
20260902180124 99 51 0.0 0.0 0.00 0.00 0.00 72 1005.9
20260902180025 98 151 0.0 0.0 0.00 0.00 0.00 72 1005.9
20260902175923 98 149 0.0 0.0 0.00 0.00 0.00 72 1005.9
20260902175822 98 149 0.0 0.0 0.00 0.00 0.00 72 1005.8
20260902175724 98 152 0.0 0.0 0.00 0.00 0.00 73 1005.9
20260902175622 98 92 0.0 0.0 0.00 0.00 0.00 73 1005.9
20260902175521 97 227 0.0 0.0 0.00 0.00 0.00 73 1005.9
20260902175422 97 248 0.0 0.0 0.00 0.00 0.00 73 1005.9
20260902175323 97 319 0.0 0.0 0.00 0.00 0.00 73 1006.0
20260902175223 97 320 0.0 0.0 0.00 0.00 0.00 74 1006.0
20260902175122 97 320 0.0 0.0 0.00 0.00 0.00 74 1006.0
20260902175021 96 289 0.0 0.0 0.00 0.00 0.00 73 1006.1
20260902174924 96 353 0.0 0.0 0.00 0.00 0.00 73 1006.1
20260902174822 96 351 0.0 0.0 0.00 0.00 0.00 73 1006.1
20260902174723 96 0 0.0 0.0 0.00 0.00 0.00 73 1006.2
20260902174621 96 234 0.0 0.0 0.00 0.00 0.00 73 1006.2
20260902174521 96 237 0.0 0.0 0.00 0.00 0.00 74 1006.3
20260902174424 96 261 0.0 0.0 0.00 0.00 0.00 74 1006.3
20260902174313 96 292 0.0 0.0 0.00 0.00 0.00 74 1006.2
20260902174203 96 298 0.0 0.0 0.00 0.00 0.00 74 1006.4
20260902174103 96 190 0.0 0.0 0.00 0.00 0.00 75 1006.4
20260902174005 96 195 0.0 0.0 0.00 0.00 0.00 75 1006.3
20260902173904 95 248 0.0 0.0 0.00 0.00 0.00 75 1006.3
20260902173805 95 219 0.0 0.0 0.00 0.00 0.00 75 1006.4
20260902173702 95 171 0.0 0.0 0.00 0.00 0.00 75 1006.4
20260902173603 95 169 0.0 0.0 0.00 0.00 0.00 75 1006.4
20260902173504 95 207 0.0 0.0 0.00 0.00 0.00 76 1006.4
20260902173404 95 209 0.0 0.0 0.00 0.00 0.00 76 1006.5
20260902173303 95 180 0.0 0.0 0.00 0.00 0.00 76 1006.5
20260902173206 94 179 0.0 0.0 0.00 0.00 0.00 76 1006.5
20260902173104 94 183 0.0 0.0 0.00 0.00 0.00 76 1006.5
20260902173005 94 186 0.0 0.0 0.00 0.00 0.00 76 1006.5
20260902172903 94 186 0.0 0.0 0.00 0.00 0.00 76 1006.6
20260902172805 94 186 0.0 0.0 0.00 0.00 0.00 76 1006.6
20260902172704 94 185 0.0 0.0 0.00 0.00 0.00 76 1006.6
20260902172604 94 178 0.0 0.0 0.00 0.00 0.00 76 1006.6
20260902172505 94 219 0.0 0.0 0.00 0.00 0.00 76 1006.6
20260902172403 94 214 0.0 0.0 0.00 0.00 0.00 76 1006.6
20260902172308 94 78 0.0 0.0 0.00 0.00 0.00 76 1006.6
20260902172204 94 35 0.0 0.0 0.00 0.00 0.00 76 1006.6
20260902172102 94 35 0.0 0.0 0.00 0.00 0.00 76 1006.7
20260902172004 94 27 0.0 0.0 0.00 0.00 0.00 76 1006.6
20260902171905 94 27 0.0 0.0 0.00 0.00 0.00 76 1006.7
20260902171804 94 23 0.0 0.0 0.00 0.00 0.00 76 1006.7
20260902171703 94 221 0.0 0.0 0.00 0.00 0.00 76 1006.7
20260902171602 94 252 0.0 0.0 0.00 0.00 0.00 76 1006.7
20260902171503 94 271 0.0 0.0 0.00 0.00 0.00 76 1006.8
20260902171404 94 268 0.0 0.0 0.00 0.00 0.00 76 1006.8
20260902171303 94 207 0.0 0.0 0.00 0.00 0.00 76 1006.9
20260902171202 94 204 0.0 0.0 0.00 0.00 0.00 76 1006.8
20260902171103 94 204 0.0 0.0 0.00 0.00 0.00 76 1006.9
20260902171006 94 306 0.0 0.0 0.00 0.00 0.00 75 1006.8
20260902170902 94 306 0.0 0.0 0.00 0.00 0.00 75 1006.9
20260902170801 94 221 0.0 0.0 0.00 0.00 0.00 75 1006.9
20260902170701 94 302 0.0 0.0 0.00 0.00 0.00 75 1006.9
20260902170559 94 305 0.0 0.0 0.00 0.00 0.00 75 1006.8
20260902170455 94 300 0.0 0.0 0.00 0.00 0.00 75 1006.9
20260902170351 93 306 0.0 0.0 0.00 0.00 0.00 75 1006.9
20260902170246 93 159 0.0 0.0 0.00 0.00 0.00 75 1006.9
20260902170138 93 204 0.0 0.0 0.00 0.00 0.00 75 1006.9
20260902170035 93 168 0.0 0.0 0.00 0.00 0.00 75 1006.9
20260902165932 93 227 0.0 0.0 0.00 0.00 0.00 75 1007.0
20260902165832 93 212 0.0 0.0 0.00 0.00 0.00 75 1007.0
20260902165732 93 213 0.0 0.0 0.00 0.00 0.00 75 1007.0
20260902165635 93 292 0.0 0.0 0.00 0.00 0.00 75 1007.0
20260902165533 93 148 0.0 0.0 0.00 0.00 0.00 76 1007.0
20260902165432 92 313 0.0 0.0 0.00 0.00 0.00 76 1007.0
20260902165332 92 193 0.0 0.0 0.00 0.00 0.00 76 1007.1
20260902165233 92 14 0.0 0.0 0.00 0.00 0.00 76 1007.0
20260902165131 92 21 0.0 0.0 0.00 0.00 0.00 78 1007.0
20260902165026 92 44 0.0 0.0 0.00 0.00 0.00 78 1007.0
20260902164927 91 350 0.0 0.0 0.00 0.00 0.00 78 1007.0
20260902164825 90 350 0.0 0.0 0.00 0.00 0.00 79 1007.1
20260902164723 90 247 0.0 0.0 0.00 0.00 0.00 79 1007.1
20260902164620 90 214 0.0 0.0 0.00 0.00 0.00 79 1007.1
20260902164521 89 234 0.0 0.0 0.00 0.00 0.00 82 1007.1
20260902164421 89 234 0.0 0.0 0.00 0.00 0.00 82 1007.1
20260902164320 89 351 0.0 0.0 0.00 0.00 0.00 82 1007.1
20260902164220 88 202 0.0 0.0 0.00 0.00 0.00 83 1007.1
20260902164121 88 197 0.0 0.0 0.00 0.00 0.00 83 1007.1
20260902164021 88 196 0.0 0.0 0.00 0.00 0.00 83 1007.2
20260902163921 87 196 0.0 0.0 0.00 0.00 0.00 83 1007.2
20260902163821 87 196 0.0 0.0 0.00 0.00 0.00 83 1007.3
20260902163720 87 196 0.0 0.0 0.00 0.00 0.00 83 1007.3
20260902163620 87 196 0.0 0.0 0.00 0.00 0.00 84 1007.2
20260902163519 87 192 0.0 0.0 0.00 0.00 0.00 84 1007.2
20260902163420 87 190 0.0 0.0 0.00 0.00 0.00 84 1007.2
20260902163319 87 203 0.0 0.0 0.00 0.00 0.00 84 1007.3
20260902163220 87 203 0.0 0.0 0.00 0.00 0.00 84 1007.2
20260902163121 87 221 0.0 0.0 0.00 0.00 0.00 84 1007.2
20260902163023 87 228 0.0 0.0 0.00 0.00 0.00 85 1007.2
20260902162921 87 290 0.0 0.0 0.00 0.00 0.00 85 1007.3
20260902162820 87 292 0.0 0.0 0.00 0.00 0.00 85 1007.2
20260902162722 87 357 0.0 0.0 0.00 0.00 0.00 86 1007.3
20260902162622 87 223 0.0 0.0 0.00 0.00 0.00 86 1007.2
20260902162519 87 221 0.0 0.0 0.00 0.00 0.00 86 1007.3
20260902162419 87 219 0.0 0.0 0.00 0.00 0.00 86 1007.3
20260902162321 86 233 0.0 0.0 0.00 0.00 0.00 86 1007.2
20260902162220 86 255 0.0 0.0 0.00 0.00 0.00 87 1007.3
20260902162122 86 200 0.0 0.0 0.00 0.00 0.00 87 1007.2
20260902162021 86 224 0.0 0.0 0.00 0.00 0.00 87 1007.2
20260902161919 86 228 0.0 0.0 0.00 0.00 0.00 87 1007.2
20260902161819 86 228 0.0 0.0 0.00 0.00 0.00 87 1007.2
20260902161720 86 241 0.0 0.0 0.00 0.00 0.00 87 1007.3
20260902161620 86 241 0.0 0.0 0.00 0.00 0.00 87 1007.3
20260902161520 86 241 0.0 0.0 0.00 0.00 0.00 87 1007.2
20260902161420 86 238 0.0 0.0 0.00 0.00 0.00 88 1007.2
20260902161319 86 149 0.0 0.0 0.00 0.00 0.00 88 1007.2
20260902161223 85 251 0.0 0.0 0.00 0.00 0.00 89 1007.3
20260902161120 85 248 0.0 0.0 0.00 0.00 0.00 89 1007.3
20260902161026 85 231 0.0 0.0 0.00 0.00 0.00 89 1007.3
20260902160921 85 238 0.0 0.0 0.00 0.00 0.00 89 1007.3
20260902160823 85 206 0.0 0.0 0.00 0.00 0.00 89 1007.2
20260902160720 85 175 0.0 0.0 0.00 0.00 0.00 89 1007.3
20260902160621 85 209 0.0 0.0 0.00 0.00 0.00 90 1007.3
20260902160521 85 209 0.0 0.0 0.00 0.00 0.00 90 1007.3
20260902160420 85 193 0.0 0.0 0.00 0.00 0.00 90 1007.3
20260902160311 85 148 0.0 0.0 0.00 0.00 0.00 91 1007.3
20260902160211 85 171 0.0 0.0 0.00 0.00 0.00 91 1007.3
20260902160106 85 152 0.0 0.0 0.00 0.00 0.00 91 1007.3
20260902160008 84 168 0.0 0.0 0.00 0.00 0.00 91 1007.3
20260902155904 84 186 0.0 0.0 0.00 0.00 0.00 92 1007.3
20260902155801 84 182 0.0 0.0 0.00 0.00 0.00 92 1007.2
20260902155703 84 204 0.0 0.0 0.00 0.00 0.00 92 1007.3
20260902155604 84 166 0.0 0.0 0.00 0.00 0.00 93 1007.3
20260902155503 84 251 0.0 0.0 0.00 0.00 0.00 93 1007.4
20260902155403 84 79 0.0 0.0 0.00 0.00 0.00 93 1007.3
20260902155306 84 79 0.0 0.0 0.00 0.00 0.00 93 1007.3
20260902155203 84 16 0.0 0.0 0.00 0.00 0.00 93 1007.3
20260902155103 84 331 0.0 0.0 0.00 0.00 0.00 93 1007.3
20260902155003 83 25 0.0 0.0 0.00 0.00 0.00 94 1007.3
20260902154902 83 25 0.0 0.0 0.00 0.00 0.00 94 1007.3
20260902154802 83 31 0.0 0.0 0.00 0.00 0.00 94 1007.3
20260902154704 83 241 0.0 0.0 0.00 0.00 0.00 94 1007.4
20260902154602 83 193 0.0 0.0 0.00 0.00 0.00 94 1007.3
20260902154503 83 193 0.0 0.0 0.00 0.00 0.00 94 1007.4
20260902154405 83 83 0.0 0.0 0.00 0.00 0.00 94 1007.3
20260902154306 83 152 0.0 0.0 0.00 0.00 0.00 94 1007.3
20260902154204 83 353 0.0 0.0 0.00 0.00 0.00 94 1007.3
20260902154102 83 354 0.0 0.0 0.00 0.00 0.00 95 1007.3
20260902154001 83 158 0.0 0.0 0.00 0.00 0.00 95 1007.4
20260902153904 83 275 0.0 0.0 0.00 0.00 0.00 95 1007.3
20260902153804 83 244 0.0 0.0 0.00 0.00 0.00 95 1007.4
20260902153702 83 244 0.0 0.0 0.00 0.00 0.00 95 1007.4
20260902153603 83 285 0.0 0.0 0.00 0.00 0.00 95 1007.4
20260902153504 82 248 0.0 0.0 0.00 0.00 0.00 95 1007.4
20260902153406 82 233 0.0 0.0 0.00 0.00 0.00 95 1007.4
20260902153302 82 196 0.0 0.0 0.00 0.00 0.00 95 1007.4
20260902153202 82 196 0.0 0.0 0.00 0.00 0.00 95 1007.5
20260902153102 82 196 0.0 0.0 0.00 0.00 0.00 95 1007.4
20260902153006 82 196 0.0 0.0 0.00 0.00 0.00 95 1007.4
20260902152903 82 193 0.0 0.0 0.00 0.00 0.00 95 1007.4
20260902152802 82 189 0.0 0.0 0.00 0.00 0.00 95 1007.5
20260902152702 82 180 0.0 0.0 0.00 0.00 0.00 95 1007.5
20260902152606 82 118 0.0 0.0 0.00 0.00 0.00 95 1007.5
20260902152504 82 171 0.0 0.0 0.00 0.00 0.00 95 1007.6
20260902152402 82 207 0.0 0.0 0.00 0.00 0.00 95 1007.5
20260902152307 82 210 0.0 0.0 0.00 0.00 0.00 95 1007.5
20260902152204 82 210 0.0 0.0 0.00 0.00 0.00 95 1007.5
20260902152105 82 210 0.0 0.0 0.00 0.00 0.00 95 1007.5
20260902152004 82 210 0.0 0.0 0.00 0.00 0.00 96 1007.6
20260902151902 82 207 0.0 0.0 0.00 0.00 0.00 96 1007.6
20260902151802 82 252 0.0 0.0 0.00 0.00 0.00 96 1007.4
20260902151705 82 210 0.0 0.0 0.00 0.00 0.00 96 1007.5
20260902151603 82 248 0.0 0.0 0.00 0.00 0.00 96 1007.5
20260902151505 82 207 0.0 0.0 0.00 0.00 0.00 96 1007.5
20260902151403 82 203 0.0 0.0 0.00 0.00 0.00 96 1007.5
20260902151307 82 220 0.0 0.0 0.00 0.00 0.00 96 1007.5
20260902151154 82 216 0.0 0.0 0.00 0.00 0.00 96 1007.5
20260902151050 82 196 0.0 0.0 0.00 0.00 0.00 96 1007.5
20260902150949 82 271 0.0 0.0 0.00 0.00 0.00 96 1007.5
20260902150847 81 271 0.0 0.0 0.00 0.00 0.00 96 1007.5
20260902150745 81 251 0.0 0.0 0.00 0.00 0.00 96 1007.6
20260902150642 81 258 0.0 0.0 0.00 0.00 0.00 96 1007.5
20260902150532 81 259 0.0 0.0 0.00 0.00 0.00 96 1007.5
20260902150433 81 250 0.0 0.0 0.00 0.00 0.00 96 1007.6
20260902150335 81 250 0.0 0.0 0.00 0.00 0.00 96 1007.5
20260902150234 81 250 0.0 0.0 0.00 0.00 0.00 96 1007.5
20260902150132 81 251 0.0 0.0 0.00 0.00 0.00 96 1007.5
20260902150024 81 251 0.0 0.0 0.00 0.00 0.00 96 1007.5
20260902145919 81 251 0.0 0.0 0.00 0.00 0.00 96 1007.5
20260902145817 81 252 0.0 0.0 0.00 0.00 0.00 96 1007.4
20260902145721 81 258 0.0 0.0 0.00 0.00 0.00 96 1007.4
20260902145619 81 257 0.0 0.0 0.00 0.00 0.00 96 1007.4
20260902145517 81 257 0.0 0.0 0.00 0.00 0.00 96 1007.3
20260902145417 81 257 0.0 0.0 0.00 0.00 0.00 96 1007.4
20260902145318 81 269 0.0 0.0 0.00 0.00 0.00 96 1007.4
20260902145219 81 269 0.0 0.0 0.00 0.00 0.00 96 1007.3
20260902145117 81 269 0.0 0.0 0.00 0.00 0.00 96 1007.3
20260902145018 81 269 0.0 0.0 0.00 0.00 0.00 96 1007.4
20260902144920 81 269 0.0 0.0 0.00 0.00 0.00 96 1007.4
20260902144820 81 269 0.0 0.0 0.00 0.00 0.00 97 1007.4
20260902144718 81 192 0.0 0.0 0.00 0.00 0.00 97 1007.4
20260902144618 81 192 0.0 0.0 0.00 0.00 0.00 97 1007.4
20260902144521 81 192 0.0 0.0 0.00 0.00 0.00 97 1007.4
20260902144419 81 192 0.0 0.0 0.00 0.00 0.00 97 1007.4
20260902144318 81 193 0.0 0.0 0.00 0.00 0.00 97 1007.4
20260902144216 81 193 0.0 0.0 0.00 0.00 0.00 96 1007.4
20260902144117 81 193 0.0 0.0 0.00 0.00 0.00 96 1007.4
20260902144022 81 193 0.0 0.0 0.00 0.00 0.00 96 1007.4
20260902143920 81 193 0.0 0.0 0.00 0.00 0.00 96 1007.4
20260902143818 81 193 0.0 0.0 0.00 0.00 0.00 96 1007.4
20260902143719 81 193 0.0 0.0 0.00 0.00 0.00 96 1007.4
20260902143617 81 193 0.0 0.0 0.00 0.00 0.00 97 1007.4
20260902143521 81 193 0.0 0.0 0.00 0.00 0.00 97 1007.4
20260902143418 81 193 0.0 0.0 0.00 0.00 0.00 97 1007.4
20260902143316 81 192 0.0 0.0 0.00 0.00 0.00 97 1007.4
20260902143207 81 193 0.0 0.0 0.00 0.00 0.00 97 1007.5
20260902143103 81 193 0.0 0.0 0.00 0.00 0.00 97 1007.4
20260902143004 81 192 0.0 0.0 0.00 0.00 0.00 97 1007.5
20260902142904 80 192 0.0 0.0 0.00 0.00 0.00 97 1007.4
20260902142804 80 192 0.0 0.0 0.00 0.00 0.00 97 1007.4
20260902142706 80 192 0.0 0.0 0.00 0.00 0.00 97 1007.4
20260902142605 80 192 0.0 0.0 0.00 0.00 0.00 97 1007.3
20260902142504 80 192 0.0 0.0 0.00 0.00 0.00 97 1007.4
20260902142403 80 192 0.0 0.0 0.00 0.00 0.00 97 1007.3
20260902142306 80 190 0.0 0.0 0.00 0.00 0.00 97 1007.4
20260902142202 80 188 0.0 0.0 0.00 0.00 0.00 97 1007.4
20260902142102 80 188 0.0 0.0 0.00 0.00 0.00 97 1007.3
20260902142004 80 188 0.0 0.0 0.00 0.00 0.00 97 1007.4
20260902141902 80 188 0.0 0.0 0.00 0.00 0.00 97 1007.4
20260902141801 80 185 0.0 0.0 0.00 0.00 0.00 97 1007.5
20260902141702 80 185 0.0 0.0 0.00 0.00 0.00 97 1007.4
20260902141607 80 185 0.0 0.0 0.00 0.00 0.00 97 1007.4
20260902141504 80 185 0.0 0.0 0.00 0.00 0.00 97 1007.4
20260902141404 80 185 0.0 0.0 0.00 0.00 0.00 97 1007.4
20260902141303 80 185 0.0 0.0 0.00 0.00 0.00 97 1007.5
20260902141204 80 183 0.0 0.0 0.00 0.00 0.00 97 1007.5
20260902141104 80 183 0.0 0.0 0.00 0.00 0.00 97 1007.4
20260902141003 80 188 0.0 0.0 0.00 0.00 0.00 97 1007.4
20260902140904 80 175 0.0 0.0 0.00 0.00 0.00 97 1007.4
20260902140803 80 32 0.0 0.0 0.00 0.00 0.00 97 1007.4
20260902140705 80 32 0.0 0.0 0.00 0.00 0.00 97 1007.4
20260902140603 80 32 0.0 0.0 0.00 0.00 0.00 97 1007.4
20260902140502 80 32 0.0 0.0 0.00 0.00 0.00 97 1007.4
20260902140403 80 32 0.0 0.0 0.00 0.00 0.00 97 1007.4
20260902140305 80 32 0.0 0.0 0.00 0.00 0.00 97 1007.4
20260902140204 80 227 0.0 0.0 0.00 0.00 0.00 97 1007.4
20260902140005 80 228 0.0 0.0 0.00 0.00 0.00 97 1007.4
20260902135905 80 228 0.0 0.0 0.00 0.00 0.00 97 1007.3
20260902135804 80 188 0.0 0.0 0.00 0.00 0.00 97 1007.3
20260902135702 80 188 0.0 0.0 0.00 0.00 0.00 97 1007.3
20260902135602 80 188 0.0 0.0 0.00 0.00 0.00 97 1007.3
20260902135504 80 188 0.0 0.0 0.00 0.00 0.00 97 1007.4
20260902135403 80 186 0.0 0.0 0.00 0.00 0.00 97 1007.3
20260902135306 80 186 0.0 0.0 0.00 0.00 0.00 97 1007.3
20260902135202 80 192 0.0 0.0 0.00 0.00 0.00 97 1007.4
20260902135102 80 192 0.0 0.0 0.00 0.00 0.00 97 1007.3
20260902135006 80 192 0.0 0.0 0.00 0.00 0.00 97 1007.3
20260902134903 80 192 0.0 0.0 0.00 0.00 0.00 97 1007.3
20260902134801 80 192 0.0 0.0 0.00 0.00 0.00 97 1007.4
20260902134703 80 192 0.0 0.0 0.00 0.00 0.00 97 1007.3
20260902134607 80 206 0.0 0.0 0.00 0.00 0.00 97 1007.3
20260902134504 80 206 0.0 0.0 0.00 0.00 0.00 97 1007.4
20260902134402 80 206 0.0 0.0 0.00 0.00 0.00 97 1007.3
20260902134303 80 206 0.0 0.0 0.00 0.00 0.00 96 1007.3
20260902134203 80 204 0.0 0.0 0.00 0.00 0.00 96 1007.3
20260902134104 80 206 0.0 0.0 0.00 0.00 0.00 96 1007.3
20260902134002 80 206 0.0 0.0 0.00 0.00 0.00 96 1007.3
20260902133903 80 206 0.0 0.0 0.00 0.00 0.00 96 1007.3
20260902133807 80 206 0.0 0.0 0.00 0.00 0.00 96 1007.4
20260902133705 80 206 0.0 0.0 0.00 0.00 0.00 96 1007.3
20260902133604 80 206 0.0 0.0 0.00 0.00 0.00 96 1007.3
20260902133504 80 206 0.0 0.0 0.00 0.00 0.00 96 1007.4
20260902133403 80 206 0.0 0.0 0.00 0.00 0.00 96 1007.3
20260902133305 80 175 0.0 0.0 0.00 0.00 0.00 96 1007.4
20260902133203 80 154 0.0 0.0 0.00 0.00 0.00 96 1007.4
20260902133102 80 154 0.0 0.0 0.00 0.00 0.00 96 1007.2
20260902133008 80 154 0.0 0.0 0.00 0.00 0.00 96 1007.3
20260902132906 80 169 0.0 0.0 0.00 0.00 0.00 96 1007.3
20260902132804 80 169 0.0 0.0 0.00 0.00 0.00 96 1007.2
20260902132705 80 169 0.0 0.0 0.00 0.00 0.00 96 1007.2
20260902132603 80 169 0.0 0.0 0.00 0.00 0.00 96 1007.2
20260902132503 80 168 0.0 0.0 0.00 0.00 0.00 96 1007.2
20260902132405 80 168 0.0 0.0 0.00 0.00 0.00 96 1007.2
20260902132306 80 168 0.0 0.0 0.00 0.00 0.00 96 1007.2
20260902132204 80 168 0.0 0.0 0.00 0.00 0.00 96 1007.2
20260902132103 80 168 0.0 0.0 0.00 0.00 0.00 96 1007.1
20260902132003 80 168 0.0 0.0 0.00 0.00 0.00 96 1007.2
20260902131904 80 168 0.0 0.0 0.00 0.00 0.00 96 1007.1
20260902131802 80 168 0.0 0.0 0.00 0.00 0.00 96 1007.1
20260902131703 80 168 0.0 0.0 0.00 0.00 0.00 96 1007.1
20260902131603 80 168 0.0 0.0 0.00 0.00 0.00 96 1007.2
20260902131504 80 168 0.0 0.0 0.00 0.00 0.00 96 1007.1
20260902131401 80 168 0.0 0.0 0.00 0.00 0.00 96 1007.1
20260902131302 80 168 0.0 0.0 0.00 0.00 0.00 96 1007.0
20260902131204 80 168 0.0 0.0 0.00 0.00 0.00 96 1007.1
20260902131104 80 168 0.0 0.0 0.00 0.00 0.00 96 1007.0
20260902131004 80 168 0.0 0.0 0.00 0.00 0.00 96 1007.0
20260902130902 80 168 0.0 0.0 0.00 0.00 0.00 96 1007.0
20260902130803 80 168 0.0 0.0 0.00 0.00 0.00 96 1007.0
20260902130704 80 168 0.0 0.0 0.00 0.00 0.00 96 1007.0
20260902130602 80 271 0.0 0.0 0.00 0.00 0.00 96 1007.0
20260902130502 80 271 0.0 0.0 0.00 0.00 0.00 96 1007.0
20260902130405 80 271 0.0 0.0 0.00 0.00 0.00 96 1006.9
20260902130305 80 271 0.0 0.0 0.00 0.00 0.00 96 1007.0
20260902130204 80 271 0.0 0.0 0.00 0.00 0.00 96 1006.9
20260902130003 80 271 0.0 0.0 0.00 0.00 0.00 96 1006.9
20260902125902 80 271 0.0 0.0 0.00 0.00 0.00 96 1006.8
20260902125804 80 271 0.0 0.0 0.00 0.00 0.00 96 1006.8
20260902125703 80 271 0.0 0.0 0.00 0.00 0.00 96 1006.8
20260902125602 80 271 0.0 0.0 0.00 0.00 0.00 96 1006.8
20260902125506 80 271 0.0 0.0 0.00 0.00 0.00 96 1006.8
20260902125403 80 271 0.0 0.0 0.00 0.00 0.00 96 1006.8
20260902125305 80 271 0.0 0.0 0.00 0.00 0.00 96 1006.8
20260902125203 80 271 0.0 0.0 0.00 0.00 0.00 96 1006.7
20260902125103 80 271 0.0 0.0 0.00 0.00 0.00 96 1006.7
20260902125004 80 271 0.0 0.0 0.00 0.00 0.00 96 1006.7
20260902124903 80 271 0.0 0.0 0.00 0.00 0.00 96 1006.7
20260902124803 80 271 0.0 0.0 0.00 0.00 0.00 96 1006.7
20260902124702 80 271 0.0 0.0 0.00 0.00 0.00 96 1006.7
20260902124603 80 271 0.0 0.0 0.00 0.00 0.00 96 1006.7
20260902124504 80 271 0.0 0.0 0.00 0.00 0.00 96 1006.6
20260902124405 80 271 0.0 0.0 0.00 0.00 0.00 96 1006.5
20260902124252 80 271 0.0 0.0 0.00 0.00 0.00 96 1006.5
20260902124150 80 271 0.0 0.0 0.00 0.00 0.00 96 1006.5
20260902124046 80 271 0.0 0.0 0.00 0.00 0.00 96 1006.5
20260902123948 80 271 0.0 0.0 0.00 0.00 0.00 96 1006.5
20260902123842 80 271 0.0 0.0 0.00 0.00 0.00 96 1006.5
20260902123740 80 271 0.0 0.0 0.00 0.00 0.00 96 1006.4
20260902123641 80 271 0.0 0.0 0.00 0.00 0.00 96 1006.4
20260902123537 80 271 0.0 0.0 0.00 0.00 0.00 96 1006.3
20260902123431 80 272 0.0 0.0 0.00 0.00 0.00 96 1006.4
20260902123333 80 272 0.0 0.0 0.00 0.00 0.00 96 1006.4
20260902123233 80 272 0.0 0.0 0.00 0.00 0.00 96 1006.3
20260902123134 80 272 0.0 0.0 0.00 0.00 0.00 96 1006.2
20260902123032 80 272 0.0 0.0 0.00 0.00 0.00 96 1006.2
20260902122929 80 272 0.0 0.0 0.00 0.00 0.00 96 1006.1
20260902122827 80 272 0.0 0.0 0.00 0.00 0.00 96 1006.1
20260902122726 80 272 0.0 0.0 0.00 0.00 0.00 96 1006.1
20260902122626 80 272 0.0 0.0 0.00 0.00 0.00 96 1006.0
20260902122521 80 272 0.0 0.0 0.00 0.00 0.00 96 1006.0
20260902122417 80 272 0.0 0.0 0.00 0.00 0.00 96 1006.0
20260902122316 80 272 0.0 0.0 0.00 0.00 0.00 96 1005.9
20260902122215 80 272 0.0 0.0 0.00 0.00 0.00 96 1005.9
20260902122114 80 272 0.0 0.0 0.00 0.00 0.00 96 1005.9
20260902122017 80 272 0.0 0.0 0.00 0.00 0.00 96 1005.9
20260902121915 80 272 0.0 0.0 0.00 0.00 0.00 96 1005.8
20260902121812 80 272 0.0 0.0 0.00 0.00 0.00 96 1005.8
20260902121715 80 272 0.0 0.0 0.00 0.00 0.00 96 1005.8
20260902121614 80 272 0.0 0.0 0.00 0.00 0.00 96 1005.8
20260902121514 80 272 0.0 0.0 0.00 0.00 0.00 96 1005.8
20260902121414 80 293 0.0 0.0 0.00 0.00 0.00 96 1005.8
20260902121315 80 293 0.0 0.0 0.00 0.00 0.00 96 1005.8
20260902121215 80 293 0.0 0.0 0.00 0.00 0.00 96 1005.8
20260902121115 80 295 0.0 0.0 0.00 0.00 0.00 95 1005.9
20260902121014 80 295 0.0 0.0 0.00 0.00 0.00 95 1005.8
20260902120915 80 296 0.0 0.0 0.00 0.00 0.00 95 1005.9
20260902120816 80 296 0.0 0.0 0.00 0.00 0.00 95 1005.8
20260902120713 80 296 0.0 0.0 0.00 0.00 0.00 95 1005.8
20260902120614 80 296 0.0 0.0 0.00 0.00 0.00 95 1005.8
20260902120515 80 295 0.0 0.0 0.00 0.00 0.00 95 1005.8
20260902120414 80 298 0.0 0.0 0.00 0.00 0.00 95 1005.8
20260902120317 80 298 0.0 0.0 0.00 0.00 0.00 95 1005.8
20260902120215 80 298 0.0 0.0 0.00 0.00 0.00 95 1005.8
20260902120114 80 298 0.0 0.0 0.00 0.00 0.00 95 1005.8
20260902120015 80 204 0.0 0.0 0.00 0.00 0.00 95 1005.8
20260902115915 80 204 0.0 0.0 0.00 0.00 0.00 95 1005.8
20260902115816 80 204 0.0 0.0 0.00 0.00 0.00 95 1005.8
20260902115714 80 204 0.0 0.0 0.00 0.00 0.00 95 1005.8
20260902115613 80 204 0.0 0.0 0.00 0.00 0.00 95 1005.9
20260902115514 80 204 0.0 0.0 0.00 0.00 0.00 95 1005.8
20260902115414 80 204 0.0 0.0 0.00 0.00 0.00 95 1005.8
20260902115314 80 204 0.0 0.0 0.00 0.00 0.00 95 1005.9
20260902115214 80 204 0.0 0.0 0.00 0.00 0.00 95 1005.8
20260902115113 80 204 0.0 0.0 0.00 0.00 0.00 95 1005.8
20260902115015 80 204 0.0 0.0 0.00 0.00 0.00 95 1005.8
20260902114913 80 204 0.0 0.0 0.00 0.00 0.00 95 1005.8
20260902114816 80 204 0.0 0.0 0.00 0.00 0.00 95 1005.8
20260902114715 80 204 0.0 0.0 0.00 0.00 0.00 95 1005.8
20260902114614 80 204 0.0 0.0 0.00 0.00 0.00 95 1005.8
20260902114516 80 209 0.0 0.0 0.00 0.00 0.00 95 1005.8
20260902114414 80 209 0.0 0.0 0.00 0.00 0.00 95 1005.8
20260902114315 80 209 0.0 0.0 0.00 0.00 0.00 95 1005.8
20260902114214 80 209 0.0 0.0 0.00 0.00 0.00 95 1005.7
20260902114116 80 209 0.0 0.0 0.00 0.00 0.00 95 1005.6
20260902114015 80 190 0.0 0.0 0.00 0.00 0.00 95 1005.7
20260902113914 80 190 0.0 0.0 0.00 0.00 0.00 95 1005.7
20260902113814 80 190 0.0 0.0 0.00 0.00 0.00 95 1005.7
20260902113712 80 190 0.0 0.0 0.00 0.00 0.00 95 1005.7
20260902113613 80 189 0.0 0.0 0.00 0.00 0.00 95 1005.7
20260902113514 80 190 0.0 0.0 0.00 0.00 0.00 95 1005.7
20260902113412 80 190 0.0 0.0 0.00 0.00 0.00 95 1005.7
20260902113312 80 189 0.0 0.0 0.00 0.00 0.00 95 1005.6
20260902113216 80 190 0.0 0.0 0.00 0.00 0.00 95 1005.6
20260902113113 80 190 0.0 0.0 0.00 0.00 0.00 95 1005.6
20260902113013 80 190 0.0 0.0 0.00 0.00 0.00 95 1005.6
20260902112912 80 190 0.0 0.0 0.00 0.00 0.00 95 1005.6
20260902112815 80 190 0.0 0.0 0.00 0.00 0.00 95 1005.7
20260902112714 80 190 0.0 0.0 0.00 0.00 0.00 95 1005.6
20260902112614 80 190 0.0 0.0 0.00 0.00 0.00 95 1005.6
20260902112512 80 190 0.0 0.0 0.00 0.00 0.00 95 1005.6
20260902112413 80 190 0.0 0.0 0.00 0.00 0.00 95 1005.6
20260902112313 80 190 0.0 0.0 0.00 0.00 0.00 95 1005.6
20260902112210 80 190 0.0 0.0 0.00 0.00 0.00 95 1005.6
20260902112105 80 268 0.0 0.0 0.00 0.00 0.00 95 1005.6
20260902112005 80 268 0.0 0.0 0.00 0.00 0.00 95 1005.7
20260902111904 80 268 0.0 0.0 0.00 0.00 0.00 95 1005.7
20260902111806 80 272 0.0 0.0 0.00 0.00 0.00 95 1005.7
20260902111703 80 272 0.0 0.0 0.00 0.00 0.00 95 1005.7
20260902111602 80 272 0.0 0.0 0.00 0.00 0.00 95 1005.6
20260902111502 80 272 0.0 0.0 0.00 0.00 0.00 95 1005.6
20260902111406 80 274 0.0 0.0 0.00 0.00 0.00 95 1005.7
20260902111304 80 274 0.0 0.0 0.00 0.00 0.00 95 1005.7
20260902111154 80 274 0.0 0.0 0.00 0.00 0.00 95 1005.7
20260902111052 80 274 0.0 0.0 0.00 0.00 0.00 95 1005.7
20260902110950 80 274 0.0 0.0 0.00 0.00 0.00 95 1005.7
20260902110848 80 274 0.0 0.0 0.00 0.00 0.00 95 1005.7
20260902110741 80 274 0.0 0.0 0.00 0.00 0.00 95 1005.7
20260902110631 80 193 0.0 0.0 0.00 0.00 0.00 95 1005.8
20260902110533 80 193 0.0 0.0 0.00 0.00 0.00 95 1005.7
20260902110434 80 193 0.0 0.0 0.00 0.00 0.00 95 1005.7
20260902110332 80 193 0.0 0.0 0.00 0.00 0.00 94 1005.7
20260902110230 80 195 0.0 0.0 0.00 0.00 0.00 94 1005.7
20260902110115 80 195 0.0 0.0 0.00 0.00 0.00 94 1005.8
20260902110015 80 193 0.0 0.0 0.00 0.00 0.00 94 1005.7
20260902105912 80 193 0.0 0.0 0.00 0.00 0.00 94 1005.7
20260902105812 80 193 0.0 0.0 0.00 0.00 0.00 94 1005.7
20260902105713 80 193 0.0 0.0 0.00 0.00 0.00 94 1005.8
20260902105615 80 193 0.0 0.0 0.00 0.00 0.00 94 1005.7
20260902105512 80 193 0.0 0.0 0.00 0.00 0.00 94 1005.7
20260902105413 80 193 0.0 0.0 0.00 0.00 0.00 94 1005.7
20260902105313 80 195 0.0 0.0 0.00 0.00 0.00 94 1005.8
20260902105213 80 189 0.0 0.0 0.00 0.00 0.00 94 1005.7
20260902105113 80 189 0.0 0.0 0.00 0.00 0.00 94 1005.8
20260902105013 80 189 0.0 0.0 0.00 0.00 0.00 94 1005.8
20260902104912 80 189 0.0 0.0 0.00 0.00 0.00 94 1005.8
20260902104812 80 189 0.0 0.0 0.00 0.00 0.00 94 1005.8
20260902104711 80 189 0.0 0.0 0.00 0.00 0.00 94 1005.8
20260902104612 80 189 0.0 0.0 0.00 0.00 0.00 94 1005.7
20260902104512 80 189 0.0 0.0 0.00 0.00 0.00 94 1005.8
20260902104413 80 189 0.0 0.0 0.00 0.00 0.00 94 1005.8
20260902104314 80 189 0.0 0.0 0.00 0.00 0.00 94 1005.8
20260902104211 80 189 0.0 0.0 0.00 0.00 0.00 94 1005.8
20260902104113 80 189 0.0 0.0 0.00 0.00 0.00 94 1005.8
20260902104012 80 189 0.0 0.0 0.00 0.00 0.00 94 1005.8
20260902103911 80 189 0.0 0.0 0.00 0.00 0.00 94 1005.7
20260902103814 80 189 0.0 0.0 0.00 0.00 0.00 94 1005.7
20260902103712 80 189 0.0 0.0 0.00 0.00 0.00 94 1005.8
20260902103613 80 189 0.0 0.0 0.00 0.00 0.00 94 1005.8
20260902103508 80 189 0.0 0.0 0.00 0.00 0.00 94 1005.7
20260902103403 80 189 0.0 0.0 0.00 0.00 0.00 94 1005.7
20260902103303 80 189 0.0 0.0 0.00 0.00 0.00 94 1005.6
20260902103202 80 189 0.0 0.0 0.00 0.00 0.00 94 1005.6
20260902103102 80 189 0.0 0.0 0.00 0.00 0.00 94 1005.7
20260902103005 80 189 0.0 0.0 0.00 0.00 0.00 94 1005.7
20260902102902 80 189 0.0 0.0 0.00 0.00 0.00 94 1005.7
20260902102803 80 189 0.0 0.0 0.00 0.00 0.00 94 1005.7
20260902102703 80 189 0.0 0.0 0.00 0.00 0.00 94 1005.6
20260902102603 80 189 0.0 0.0 0.00 0.00 0.00 94 1005.7
20260902102504 80 189 0.0 0.0 0.00 0.00 0.00 94 1005.6
20260902102403 80 189 0.0 0.0 0.00 0.00 0.00 94 1005.7
20260902102307 80 189 0.0 0.0 0.00 0.00 0.00 94 1005.6
20260902102202 80 189 0.0 0.0 0.00 0.00 0.00 94 1005.6
20260902102104 80 189 0.0 0.0 0.00 0.00 0.00 94 1005.7
20260902102003 80 189 0.0 0.0 0.00 0.00 0.00 94 1005.7
20260902101903 80 59 0.0 0.0 0.00 0.00 0.00 94 1005.7
20260902101801 80 59 0.0 0.0 0.00 0.00 0.00 94 1005.7
20260902101659 80 59 0.0 0.0 0.00 0.00 0.00 94 1005.7
20260902101558 80 59 0.0 0.0 0.00 0.00 0.00 94 1005.7
20260902101455 80 59 0.0 0.0 0.00 0.00 0.00 93 1005.7
20260902101343 80 30 0.0 0.0 0.00 0.00 0.00 93 1005.7
20260902101239 80 28 0.0 0.0 0.00 0.00 0.00 93 1005.7
20260902101136 80 216 0.0 0.0 0.00 0.00 0.00 93 1005.7
20260902101031 80 216 0.0 0.0 0.00 0.00 0.00 93 1005.7
20260902100932 80 216 0.0 0.0 0.00 0.00 0.00 93 1005.7
20260902100830 80 216 0.0 0.0 0.00 0.00 0.00 93 1005.7
20260902100731 80 216 0.0 0.0 0.00 0.00 0.00 93 1005.7
20260902100632 80 216 0.0 0.0 0.00 0.00 0.00 93 1005.7
20260902100531 80 216 0.0 0.0 0.00 0.00 0.00 93 1005.7
20260902100429 80 216 0.0 0.0 0.00 0.00 0.00 93 1005.6
20260902100330 79 216 0.0 0.0 0.00 0.00 0.00 93 1005.7
20260902100230 79 216 0.0 0.0 0.00 0.00 0.00 93 1005.7
20260902100120 80 216 0.0 0.0 0.00 0.00 0.00 93 1005.7
20260902100012 80 216 0.0 0.0 0.00 0.00 0.00 93 1005.6
20260902095911 80 216 0.0 0.0 0.00 0.00 0.00 93 1005.6
20260902095811 80 216 0.0 0.0 0.00 0.00 0.00 93 1005.6
20260902095712 80 216 0.0 0.0 0.00 0.00 0.00 93 1005.6
20260902095610 79 216 0.0 0.0 0.00 0.00 0.00 93 1005.7
20260902095504 79 216 0.0 0.0 0.00 0.00 0.00 93 1005.7
20260902095404 80 216 0.0 0.0 0.00 0.00 0.00 93 1005.7
20260902095306 80 216 0.0 0.0 0.00 0.00 0.00 93 1005.7
20260902095203 80 216 0.0 0.0 0.00 0.00 0.00 93 1005.7
20260902095101 80 216 0.0 0.0 0.00 0.00 0.00 93 1005.7
20260902095004 80 220 0.0 0.0 0.00 0.00 0.00 93 1005.8
20260902094902 80 220 0.0 0.0 0.00 0.00 0.00 93 1005.8
20260902094802 80 220 0.0 0.0 0.00 0.00 0.00 93 1005.8
20260902094703 80 220 0.0 0.0 0.00 0.00 0.00 93 1005.8
20260902094604 80 220 0.0 0.0 0.00 0.00 0.00 93 1005.8
20260902094505 80 220 0.0 0.0 0.00 0.00 0.00 93 1005.8
20260902094402 80 220 0.0 0.0 0.00 0.00 0.00 93 1005.8
20260902094302 80 220 0.0 0.0 0.00 0.00 0.00 93 1005.8
20260902094202 80 220 0.0 0.0 0.00 0.00 0.00 93 1005.8
20260902094104 80 220 0.0 0.0 0.00 0.00 0.00 93 1005.7
20260902094004 80 220 0.0 0.0 0.00 0.00 0.00 93 1005.8
20260902093902 80 220 0.0 0.0 0.00 0.00 0.00 93 1005.8
20260902093803 80 220 0.0 0.0 0.00 0.00 0.00 93 1005.7
20260902093659 80 220 0.0 0.0 0.00 0.00 0.00 93 1005.7
20260902093554 80 220 0.0 0.0 0.00 0.00 0.00 93 1005.7
20260902093444 80 220 0.0 0.0 0.00 0.00 0.00 93 1005.6
20260902093342 80 220 0.0 0.0 0.00 0.00 0.00 93 1005.6
20260902093232 80 220 0.0 0.0 0.00 0.00 0.00 93 1005.6
20260902093131 80 220 0.0 0.0 0.00 0.00 0.00 93 1005.6
20260902093032 80 220 0.0 0.0 0.00 0.00 0.00 93 1005.6
20260902092929 80 220 0.0 0.0 0.00 0.00 0.00 93 1005.6
20260902092820 80 220 0.0 0.0 0.00 0.00 0.00 93 1005.7
20260902092716 80 220 0.0 0.0 0.00 0.00 0.00 93 1005.7
20260902092611 80 220 0.0 0.0 0.00 0.00 0.00 93 1005.8
20260902092512 80 220 0.0 0.0 0.00 0.00 0.00 93 1005.7
20260902092411 80 220 0.0 0.0 0.00 0.00 0.00 93 1005.8
20260902092312 80 220 0.0 0.0 0.00 0.00 0.00 93 1005.7
20260902092210 80 220 0.0 0.0 0.00 0.00 0.00 93 1005.7
20260902092111 80 220 0.0 0.0 0.00 0.00 0.00 93 1005.7
20260902092010 80 220 0.0 0.0 0.00 0.00 0.00 93 1005.7
20260902091910 80 220 0.0 0.0 0.00 0.00 0.00 93 1005.6
20260902091812 80 220 0.0 0.0 0.00 0.00 0.00 93 1005.7
20260902091710 80 220 0.0 0.0 0.00 0.00 0.00 93 1005.7
20260902091609 80 220 0.0 0.0 0.00 0.00 0.00 94 1005.6
20260902091509 80 220 0.0 0.0 0.00 0.00 0.00 94 1005.7
20260902091412 80 220 0.0 0.0 0.00 0.00 0.00 94 1005.7
20260902091309 80 220 0.0 0.0 0.00 0.00 0.00 94 1005.7
20260902091209 80 220 0.0 0.0 0.00 0.00 0.00 94 1005.7
20260902091110 80 220 0.0 0.0 0.00 0.00 0.00 94 1005.7
20260902091009 80 220 0.0 0.0 0.00 0.00 0.00 94 1005.7
20260902090911 80 220 0.0 0.0 0.00 0.00 0.00 94 1005.7
20260902090809 80 220 0.0 0.0 0.00 0.00 0.00 94 1005.7
20260902090709 80 220 0.0 0.0 0.00 0.00 0.00 94 1005.7
20260902090612 79 220 0.0 0.0 0.00 0.00 0.00 94 1005.7
20260902090512 79 220 0.0 0.0 0.00 0.00 0.00 94 1005.7
20260902090409 79 220 0.0 0.0 0.00 0.00 0.00 94 1005.7
20260902090310 79 220 0.0 0.0 0.00 0.00 0.00 94 1005.6
20260902090211 79 220 0.0 0.0 0.00 0.00 0.00 94 1005.7
20260902090109 79 220 0.0 0.0 0.00 0.00 0.00 94 1005.6
20260902090010 79 220 0.0 0.0 0.00 0.00 0.00 94 1005.6
20260902085909 79 192 0.0 0.0 0.00 0.00 0.00 94 1005.6
20260902085811 79 192 0.0 0.0 0.00 0.00 0.00 94 1005.6
20260902085711 79 192 0.0 0.0 0.00 0.00 0.00 94 1005.6
20260902085611 79 192 0.0 0.0 0.00 0.00 0.00 94 1005.6
20260902085509 79 192 0.0 0.0 0.00 0.00 0.00 94 1005.6
20260902085409 79 192 0.0 0.0 0.00 0.00 0.00 94 1005.7
20260902085311 79 192 0.0 0.0 0.00 0.00 0.00 94 1005.6
20260902085210 79 192 0.0 0.0 0.00 0.00 0.00 94 1005.7
20260902085110 79 192 0.0 0.0 0.00 0.00 0.00 94 1005.7
20260902085011 79 192 0.0 0.0 0.00 0.00 0.00 94 1005.7
20260902084909 79 192 0.0 0.0 0.00 0.00 0.00 94 1005.6
20260902084811 79 192 0.0 0.0 0.00 0.00 0.00 94 1005.7
20260902084712 79 144 0.0 0.0 0.00 0.00 0.00 94 1005.7
20260902084612 79 141 0.0 0.0 0.00 0.00 0.00 94 1005.6
20260902084508 79 141 0.0 0.0 0.00 0.00 0.00 94 1005.6
20260902084410 79 141 0.0 0.0 0.00 0.00 0.00 94 1005.6
20260902084311 79 159 0.0 0.0 0.00 0.00 0.00 94 1005.6
20260902084211 79 159 0.0 0.0 0.00 0.00 0.00 94 1005.6
20260902084109 79 159 0.0 0.0 0.00 0.00 0.00 94 1005.5
20260902084008 79 159 0.0 0.0 0.00 0.00 0.00 95 1005.5
20260902083911 79 159 0.0 0.0 0.00 0.00 0.00 95 1005.6
20260902083810 79 159 0.0 0.0 0.00 0.00 0.00 95 1005.6
20260902083709 79 159 0.0 0.0 0.00 0.00 0.00 95 1005.6
20260902083609 79 159 0.0 0.0 0.00 0.00 0.00 95 1005.5
20260902083510 79 159 0.0 0.0 0.00 0.00 0.00 95 1005.5
20260902083408 79 159 0.0 0.0 0.00 0.00 0.00 95 1005.5
20260902083302 79 159 0.0 0.0 0.00 0.00 0.00 95 1005.4
20260902083202 79 85 0.0 0.0 0.00 0.00 0.00 95 1005.4
20260902083103 79 85 0.0 0.0 0.00 0.00 0.00 95 1005.4
20260902083003 79 85 0.0 0.0 0.00 0.00 0.00 95 1005.4
20260902082903 79 85 0.0 0.0 0.00 0.00 0.00 95 1005.4
20260902082802 79 85 0.0 0.0 0.00 0.00 0.00 95 1005.4
20260902082704 78 85 0.0 0.0 0.00 0.00 0.00 95 1005.4
20260902082602 78 85 0.0 0.0 0.00 0.00 0.00 95 1005.4
20260902082504 78 85 0.0 0.0 0.00 0.00 0.00 95 1005.4
20260902082405 78 85 0.0 0.0 0.00 0.00 0.00 95 1005.4
20260902082309 78 85 0.0 0.0 0.00 0.00 0.00 95 1005.4
20260902082202 78 85 0.0 0.0 0.00 0.00 0.00 95 1005.4
20260902082103 78 83 0.0 0.0 0.00 0.00 0.00 95 1005.5
20260902082005 78 83 0.0 0.0 0.00 0.00 0.00 95 1005.4
20260902081903 78 83 0.0 0.0 0.00 0.00 0.00 95 1005.4
20260902081804 78 83 0.0 0.0 0.00 0.00 0.00 95 1005.4
20260902081702 78 83 0.0 0.0 0.00 0.00 0.00 95 1005.4
20260902081601 78 83 0.0 0.0 0.00 0.00 0.00 95 1005.4
20260902081506 78 83 0.0 0.0 0.00 0.00 0.00 95 1005.4
20260902081359 78 83 0.0 0.0 0.00 0.00 0.00 95 1005.4
20260902081250 78 83 0.0 0.0 0.00 0.00 0.00 95 1005.4
20260902081142 78 83 0.0 0.0 0.00 0.00 0.00 95 1005.5
20260902081032 78 83 0.0 0.0 0.00 0.00 0.00 95 1005.5
20260902080935 78 83 0.0 0.0 0.00 0.00 0.00 95 1005.4
20260902080832 78 83 0.0 0.0 0.00 0.00 0.00 95 1005.4
20260902080731 78 83 0.0 0.0 0.00 0.00 0.00 95 1005.5
20260902080632 78 83 0.0 0.0 0.00 0.00 0.00 95 1005.5
20260902080531 78 83 0.0 0.0 0.00 0.00 0.00 95 1005.5
20260902080432 78 83 0.0 0.0 0.00 0.00 0.00 95 1005.5
20260902080333 78 83 0.0 0.0 0.00 0.00 0.00 95 1005.5
20260902080232 78 83 0.0 0.0 0.00 0.00 0.00 95 1005.6
20260902080131 78 83 0.0 0.0 0.00 0.00 0.00 95 1005.5
20260902080033 78 83 0.0 0.0 0.00 0.00 0.00 95 1005.5
20260902075933 78 83 0.0 0.0 0.00 0.00 0.00 95 1005.6
20260902075832 78 83 0.0 0.0 0.00 0.00 0.00 95 1005.6
20260902075731 78 83 0.0 0.0 0.00 0.00 0.00 95 1005.6
20260902075631 78 83 0.0 0.0 0.00 0.00 0.00 95 1005.6
20260902075529 78 83 0.0 0.0 0.00 0.00 0.00 95 1005.6
20260902075421 78 83 0.0 0.0 0.00 0.00 0.00 95 1005.6
20260902075320 78 83 0.0 0.0 0.00 0.00 0.00 95 1005.7
20260902075215 78 83 0.0 0.0 0.00 0.00 0.00 95 1005.6
20260902075107 78 83 0.0 0.0 0.00 0.00 0.00 95 1005.6
20260902075010 78 83 0.0 0.0 0.00 0.00 0.00 95 1005.7
20260902074907 78 83 0.0 0.0 0.00 0.00 0.00 95 1005.7
20260902074809 78 83 0.0 0.0 0.00 0.00 0.00 95 1005.7
20260902074708 78 83 0.0 0.0 0.00 0.00 0.00 95 1005.7
20260902074609 78 83 0.0 0.0 0.00 0.00 0.00 95 1005.6
20260902074508 78 83 0.0 0.0 0.00 0.00 0.00 95 1005.6
20260902074409 78 82 0.0 0.0 0.00 0.00 0.00 95 1005.6
20260902074309 78 82 0.0 0.0 0.00 0.00 0.00 95 1005.7
20260902074210 78 82 0.0 0.0 0.00 0.00 0.00 95 1005.6
20260902074109 78 82 0.0 0.0 0.00 0.00 0.00 95 1005.7
20260902074009 78 82 0.0 0.0 0.00 0.00 0.00 95 1005.6
20260902073907 78 82 0.0 0.0 0.00 0.00 0.00 95 1005.6
20260902073809 78 62 0.0 0.0 0.00 0.00 0.00 95 1005.6
20260902073709 78 62 0.0 0.0 0.00 0.00 0.00 95 1005.6
20260902073608 78 62 0.0 0.0 0.00 0.00 0.00 95 1005.6
20260902073508 78 62 0.0 0.0 0.00 0.00 0.00 95 1005.6
20260902073409 78 62 0.0 0.0 0.00 0.00 0.00 95 1005.6
20260902073307 78 62 0.0 0.0 0.00 0.00 0.00 95 1005.6
20260902073209 78 62 0.0 0.0 0.00 0.00 0.00 95 1005.6
20260902073108 78 62 0.0 0.0 0.00 0.00 0.00 95 1005.6
20260902073008 78 62 0.0 0.0 0.00 0.00 0.00 95 1005.7
20260902072909 78 62 0.0 0.0 0.00 0.00 0.00 95 1005.7
20260902072809 78 62 0.0 0.0 0.00 0.00 0.00 95 1005.7
20260902072707 78 62 0.0 0.0 0.00 0.00 0.00 95 1005.7
20260902072608 78 62 0.0 0.0 0.00 0.00 0.00 95 1005.8
20260902072508 78 62 0.0 0.0 0.00 0.00 0.00 95 1005.9
20260902072409 78 62 0.0 0.0 0.00 0.00 0.00 95 1005.8
20260902072309 78 62 0.0 0.0 0.00 0.00 0.00 95 1005.8
20260902072208 78 62 0.0 0.0 0.00 0.00 0.00 95 1005.8
20260902072104 78 62 0.0 0.0 0.00 0.00 0.00 95 1005.9
20260902072004 78 62 0.0 0.0 0.00 0.00 0.00 95 1005.9
20260902071904 78 62 0.0 0.0 0.00 0.00 0.00 95 1005.9
20260902071803 78 62 0.0 0.0 0.00 0.00 0.00 95 1005.9
20260902071704 78 62 0.0 0.0 0.00 0.00 0.00 95 1005.9
20260902071604 78 62 0.0 0.0 0.00 0.00 0.00 95 1005.8
20260902071503 78 62 0.0 0.0 0.00 0.00 0.00 95 1005.8
20260902071403 78 62 0.0 0.0 0.00 0.00 0.00 95 1005.9
20260902071304 78 62 0.0 0.0 0.00 0.00 0.00 95 1005.9
20260902071202 78 62 0.0 0.0 0.00 0.00 0.00 95 1005.9
20260902071103 78 62 0.0 0.0 0.00 0.00 0.00 95 1005.8
20260902071004 78 62 0.0 0.0 0.00 0.00 0.00 95 1005.9
20260902070903 78 62 0.0 0.0 0.00 0.00 0.00 95 1005.9
20260902070803 78 62 0.0 0.0 0.00 0.00 0.00 95 1005.9
20260902070702 78 62 0.0 0.0 0.00 0.00 0.00 95 1005.9
20260902070600 78 62 0.0 0.0 0.00 0.00 0.00 95 1005.9
20260902070450 78 62 0.0 0.0 0.00 0.00 0.00 95 1005.9
20260902070339 78 62 0.0 0.0 0.00 0.00 0.00 95 1005.9
20260902070232 78 62 0.0 0.0 0.00 0.00 0.00 95 1006.0
20260902070132 78 62 0.0 0.0 0.00 0.00 0.00 95 1006.0
20260902070033 78 62 0.0 0.0 0.00 0.00 0.00 95 1005.9
20260902065933 78 62 0.0 0.0 0.00 0.00 0.00 95 1005.9
20260902065832 78 62 0.0 0.0 0.00 0.00 0.00 95 1005.9
20260902065734 78 62 0.0 0.0 0.00 0.00 0.00 95 1006.0
20260902065631 78 62 0.0 0.0 0.00 0.00 0.00 95 1005.9
20260902065530 78 62 0.0 0.0 0.00 0.00 0.00 95 1006.0
20260902065432 78 62 0.0 0.0 0.00 0.00 0.00 95 1005.9
20260902065333 78 62 0.0 0.0 0.00 0.00 0.00 95 1006.0
20260902065233 78 62 0.0 0.0 0.00 0.00 0.00 95 1006.0
20260902065131 78 62 0.0 0.0 0.00 0.00 0.00 95 1006.0
20260902065032 78 62 0.0 0.0 0.00 0.00 0.00 94 1006.0
20260902064932 78 62 0.0 0.0 0.00 0.00 0.00 94 1006.0
20260902064830 78 62 0.0 0.0 0.00 0.00 0.00 94 1006.0
20260902064732 78 62 0.0 0.0 0.00 0.00 0.00 94 1006.0
20260902064634 78 62 0.0 0.0 0.00 0.00 0.00 94 1006.0
20260902064533 78 62 0.0 0.0 0.00 0.00 0.00 94 1006.0
20260902064430 78 62 0.0 0.0 0.00 0.00 0.00 94 1006.1
20260902064332 78 62 0.0 0.0 0.00 0.00 0.00 94 1006.1
20260902064231 78 62 0.0 0.0 0.00 0.00 0.00 94 1006.1
20260902064134 78 62 0.0 0.0 0.00 0.00 0.00 94 1006.1
20260902064032 78 62 0.0 0.0 0.00 0.00 0.00 94 1006.0
20260902063933 78 62 0.0 0.0 0.00 0.00 0.00 95 1006.0
20260902063831 78 62 0.0 0.0 0.00 0.00 0.00 95 1006.0
20260902063733 78 62 0.0 0.0 0.00 0.00 0.00 94 1006.0
20260902063633 78 62 0.0 0.0 0.00 0.00 0.00 94 1006.0
20260902063532 78 62 0.0 0.0 0.00 0.00 0.00 94 1006.0
20260902063433 78 62 0.0 0.0 0.00 0.00 0.00 94 1006.0
20260902063334 78 62 0.0 0.0 0.00 0.00 0.00 94 1006.0
20260902063224 78 62 0.0 0.0 0.00 0.00 0.00 94 1006.0
20260902063113 78 62 0.0 0.0 0.00 0.00 0.00 94 1006.0
20260902063009 78 62 0.0 0.0 0.00 0.00 0.00 94 1006.0
20260902062905 78 62 0.0 0.0 0.00 0.00 0.00 94 1006.0
20260902062806 78 62 0.0 0.0 0.00 0.00 0.00 94 1006.0
20260902062709 78 62 0.0 0.0 0.00 0.00 0.00 94 1006.0
20260902062606 78 62 0.0 0.0 0.00 0.00 0.00 94 1006.0
20260902062506 78 62 0.0 0.0 0.00 0.00 0.00 94 1006.0
20260902062406 78 62 0.0 0.0 0.00 0.00 0.00 94 1006.0
20260902062306 78 62 0.0 0.0 0.00 0.00 0.00 94 1005.9
20260902062207 78 62 0.0 0.0 0.00 0.00 0.00 94 1005.9
20260902062107 78 62 0.0 0.0 0.00 0.00 0.00 94 1005.9
20260902062006 78 62 0.0 0.0 0.00 0.00 0.00 94 1005.9
20260902061905 78 62 0.0 0.0 0.00 0.00 0.00 94 1005.9
20260902061808 78 62 0.0 0.0 0.00 0.00 0.00 94 1005.9
20260902061708 78 62 0.0 0.0 0.00 0.00 0.00 94 1005.9
20260902061606 78 62 0.0 0.0 0.00 0.00 0.00 94 1005.8
20260902061506 78 62 0.0 0.0 0.00 0.00 0.00 94 1005.7
20260902061409 78 62 0.0 0.0 0.00 0.00 0.00 94 1005.8
20260902061305 78 62 0.0 0.0 0.00 0.00 0.00 94 1005.8
20260902061208 78 62 0.0 0.0 0.00 0.00 0.00 94 1005.8
20260902061106 78 62 0.0 0.0 0.00 0.00 0.00 94 1005.8
20260902061005 78 62 0.0 0.0 0.00 0.00 0.00 94 1005.8
20260902060908 78 62 0.0 0.0 0.00 0.00 0.00 94 1005.8
20260902060806 78 62 0.0 0.0 0.00 0.00 0.00 94 1005.8
20260902060706 78 62 0.0 0.0 0.00 0.00 0.00 94 1005.7
20260902060607 78 62 0.0 0.0 0.00 0.00 0.00 94 1005.8
20260902060505 78 62 0.0 0.0 0.00 0.00 0.00 94 1005.8
20260902060407 78 62 0.0 0.0 0.00 0.00 0.00 94 1005.8
20260902060307 78 62 0.0 0.0 0.00 0.00 0.00 94 1005.8
20260902060205 78 62 0.0 0.0 0.00 0.00 0.00 94 1005.8
20260902060106 78 62 0.0 0.0 0.00 0.00 0.00 94 1005.8
20260902060008 78 62 0.0 0.0 0.00 0.00 0.00 94 1005.8
20260902055905 78 62 0.0 0.0 0.00 0.00 0.00 94 1005.8
20260902055805 78 62 0.0 0.0 0.00 0.00 0.00 94 1005.8
20260902055705 78 62 0.0 0.0 0.00 0.00 0.00 94 1005.8
20260902055605 78 62 0.0 0.0 0.00 0.00 0.00 94 1005.8
20260902055506 78 62 0.0 0.0 0.00 0.00 0.00 94 1005.8
20260902055406 78 62 0.0 0.0 0.00 0.00 0.00 94 1005.8
20260902055307 78 62 0.0 0.0 0.00 0.00 0.00 94 1005.8
20260902055204 78 62 0.0 0.0 0.00 0.00 0.00 94 1005.8
20260902055105 78 62 0.0 0.0 0.00 0.00 0.00 94 1005.8
20260902055007 78 62 0.0 0.0 0.00 0.00 0.00 94 1005.8
20260902054906 78 62 0.0 0.0 0.00 0.00 0.00 94 1005.8
20260902054806 78 62 0.0 0.0 0.00 0.00 0.00 94 1005.7
20260902054706 78 62 0.0 0.0 0.00 0.00 0.00 94 1005.7
20260902054608 78 62 0.0 0.0 0.00 0.00 0.00 94 1005.8
20260902054506 78 62 0.0 0.0 0.00 0.00 0.00 94 1005.8
20260902054406 78 62 0.0 0.0 0.00 0.00 0.00 94 1005.7
20260902054305 78 62 0.0 0.0 0.00 0.00 0.00 94 1005.7
20260902054204 78 62 0.0 0.0 0.00 0.00 0.00 94 1005.7
20260902054106 78 62 0.0 0.0 0.00 0.00 0.00 94 1005.7
20260902054005 78 62 0.0 0.0 0.00 0.00 0.00 94 1005.6
20260902053905 78 62 0.0 0.0 0.00 0.00 0.00 94 1005.6
20260902053807 78 62 0.0 0.0 0.00 0.00 0.00 94 1005.6
20260902053705 78 62 0.0 0.0 0.00 0.00 0.00 94 1005.6
20260902053605 78 62 0.0 0.0 0.00 0.00 0.00 94 1005.6
20260902053505 78 62 0.0 0.0 0.00 0.00 0.00 94 1005.6
20260902053404 78 62 0.0 0.0 0.00 0.00 0.00 94 1005.5